PTI737 PANC-VHHH

Flight info

Callsign PTI737
Flight time 11h 9m
Altitude 34000
Route NODLE R220 IXE Y88 NAKTU Y12 KOHWA Y54 TURFY Y24 KOSHI A1 ELATO V522 ABBEY
Aircraft B737/M-SDE2E3FGHIRWXY/LB1

Departure

Time 2026-05-07 11:12
Airport Ted Stevens Anchorage International Airport (PANC)

Arrival

Time 2026-05-07 22:22
Airport Hong Kong International Airport (VHHH)
Time Latitude Longitude Altitude Speed Heading
2026-05-07 10:59 61.17454 -149.99097 104 ft 0 kts 70°
2026-05-07 11:08 61.17460 -149.99018 104 ft 16 kts 97°
2026-05-07 11:08 61.17337 -149.98853 107 ft 23 kts 162°
2026-05-07 11:08 61.17188 -149.98742 111 ft 22 kts 160°
2026-05-07 11:09 61.17115 -149.98492 115 ft 22 kts 93°
2026-05-07 11:09 61.17117 -149.98181 114 ft 22 kts 89°
2026-05-07 11:09 61.17117 -149.97849 111 ft 23 kts 90°
2026-05-07 11:09 61.17118 -149.97523 106 ft 22 kts 89°
2026-05-07 11:10 61.17127 -149.97202 100 ft 22 kts 88°
2026-05-07 11:10 61.17128 -149.96901 96 ft 18 kts 93°
2026-05-07 11:10 61.17025 -149.96809 98 ft 18 kts 181°
2026-05-07 11:10 61.16895 -149.96946 99 ft 26 kts 247°
2026-05-07 11:11 61.16828 -149.97288 106 ft 25 kts 248°
2026-05-07 11:11 61.16789 -149.97625 112 ft 26 kts 269°
2026-05-07 11:11 61.16789 -149.98533 118 ft 100 kts 269°
2026-05-07 11:11 61.16774 -150.00457 134 ft 165 kts 266°
2026-05-07 11:12 61.16768 -150.03023 738 ft 172 kts 268°
2026-05-07 11:12 61.16757 -150.05494 1779 ft 176 kts 262°
2026-05-07 11:12 61.16644 -150.08204 2169 ft 204 kts 261°
2026-05-07 11:12 61.16495 -150.11294 2519 ft 224 kts 261°
2026-05-07 11:13 61.16327 -150.14688 2836 ft 251 kts 262°
2026-05-07 11:13 61.16159 -150.18348 3624 ft 255 kts 262°
2026-05-07 11:13 61.16048 -150.22019 4546 ft 259 kts 270°
2026-05-07 11:13 61.16258 -150.25778 5340 ft 266 kts 275°
2026-05-07 11:14 61.16569 -150.29575 6198 ft 268 kts 276°
2026-05-07 11:14 61.16894 -150.33407 6976 ft 272 kts 276°
2026-05-07 11:14 61.17217 -150.37291 7723 ft 276 kts 276°
2026-05-07 11:14 61.17535 -150.41233 8476 ft 279 kts 276°
2026-05-07 11:15 61.17848 -150.45237 9229 ft 283 kts 276°
2026-05-07 11:15 61.18159 -150.49300 9978 ft 287 kts 276°
2026-05-07 11:15 61.18470 -150.53451 10467 ft 300 kts 276°
2026-05-07 11:15 61.18793 -150.57858 10843 ft 314 kts 276°
2026-05-07 11:16 61.19122 -150.62363 11581 ft 317 kts 276°
2026-05-07 11:16 61.19450 -150.66870 12433 ft 316 kts 276°
2026-05-07 11:16 61.19775 -150.71382 13267 ft 317 kts 276°
2026-05-07 11:16 61.20098 -150.75902 14051 ft 318 kts 276°
2026-05-07 11:17 61.20420 -150.80447 14759 ft 319 kts 276°
2026-05-07 11:17 61.20741 -150.85010 15452 ft 321 kts 276°
2026-05-07 11:17 61.21062 -150.89595 16152 ft 322 kts 276°
2026-05-07 11:17 61.21383 -150.94200 16867 ft 323 kts 276°
2026-05-07 11:18 61.21704 -150.98834 17586 ft 326 kts 276°
2026-05-07 11:18 61.22025 -151.03502 18256 ft 328 kts 276°
2026-05-07 11:18 61.22347 -151.08207 18861 ft 330 kts 276°
2026-05-07 11:18 61.22670 -151.12942 19463 ft 333 kts 276°
2026-05-07 11:19 61.22993 -151.17712 20056 ft 335 kts 276°
2026-05-07 11:19 61.23317 -151.22514 20653 ft 337 kts 276°
2026-05-07 11:19 61.23642 -151.27354 21239 ft 339 kts 275°
2026-05-07 11:19 61.23966 -151.32221 21818 ft 342 kts 275°
2026-05-07 11:20 61.24291 -151.37129 22402 ft 344 kts 275°
2026-05-07 11:20 61.24617 -151.42071 22958 ft 347 kts 275°
2026-05-07 11:20 61.24943 -151.47043 23541 ft 348 kts 275°
2026-05-07 11:20 61.25269 -151.52048 24037 ft 350 kts 275°
2026-05-07 11:21 61.25595 -151.57081 24483 ft 353 kts 275°
2026-05-07 11:21 61.25922 -151.62153 24930 ft 355 kts 275°
2026-05-07 11:21 61.26249 -151.67260 25356 ft 358 kts 275°
2026-05-07 11:21 61.26577 -151.72407 25804 ft 361 kts 275°
2026-05-07 11:22 61.26794 -151.75844 26041 ft 364 kts 275°
2026-05-07 11:22 61.27232 -151.82791 26578 ft 367 kts 275°
2026-05-07 11:22 61.27563 -151.88064 27010 ft 369 kts 275°
2026-05-07 11:22 61.27893 -151.93374 27417 ft 372 kts 275°
2026-05-07 11:23 61.28221 -151.98729 27810 ft 375 kts 275°
2026-05-07 11:23 61.28378 -152.02378 28063 ft 376 kts 271°
2026-05-07 11:23 61.28457 -152.07823 28443 ft 378 kts 269°
2026-05-07 11:23 61.28475 -152.13304 28815 ft 380 kts 269°
2026-05-07 11:24 61.28476 -152.18816 29128 ft 382 kts 269°
2026-05-07 11:24 61.28477 -152.24353 29462 ft 384 kts 269°
2026-05-07 11:24 61.28482 -152.29927 29801 ft 387 kts 269°
2026-05-07 11:24 61.28492 -152.35541 30127 ft 389 kts 269°
2026-05-07 11:25 61.28505 -152.41187 30385 ft 392 kts 269°
2026-05-07 11:25 61.28519 -152.46866 30633 ft 394 kts 269°
2026-05-07 11:25 61.28533 -152.52589 30826 ft 398 kts 269°
2026-05-07 11:25 61.28546 -152.58368 31027 ft 401 kts 270°
2026-05-07 11:26 61.28558 -152.64173 31260 ft 402 kts 269°
2026-05-07 11:26 61.28567 -152.69929 31470 ft 404 kts 270°
2026-05-07 11:26 61.28574 -152.75782 31673 ft 406 kts 270°
2026-05-07 11:26 61.28578 -152.81670 31886 ft 409 kts 270°
2026-05-07 11:27 61.28580 -152.87597 32091 ft 411 kts 270°
2026-05-07 11:27 61.28579 -152.93549 32282 ft 413 kts 270°
2026-05-07 11:27 61.28575 -152.99531 32451 ft 415 kts 269°
2026-05-07 11:27 61.28568 -153.05544 32650 ft 417 kts 269°
2026-05-07 11:28 61.28559 -153.11580 32833 ft 418 kts 269°
2026-05-07 11:28 61.28547 -153.17643 33006 ft 420 kts 269°
2026-05-07 11:28 61.28533 -153.23733 33164 ft 422 kts 269°
2026-05-07 11:28 61.28515 -153.29847 33310 ft 424 kts 269°
2026-05-07 11:29 61.28495 -153.35997 33458 ft 426 kts 269°
2026-05-07 11:29 61.28472 -153.42163 33630 ft 427 kts 269°
2026-05-07 11:29 61.28446 -153.48354 33792 ft 429 kts 269°
2026-05-07 11:29 61.28417 -153.54554 34002 ft 429 kts 269°
2026-05-07 11:30 61.28350 -153.67025 34111 ft 434 kts 269°
2026-05-07 11:30 61.28270 -153.79684 34109 ft 441 kts 269°
2026-05-07 11:31 61.28178 -153.92485 34099 ft 444 kts 269°
2026-05-07 11:31 61.28074 -154.05335 34108 ft 445 kts 269°
2026-05-07 11:32 61.27893 -154.24649 34084 ft 445 kts 269°
2026-05-07 11:33 61.27757 -154.37517 34085 ft 445 kts 269°
2026-05-07 11:33 61.27610 -154.50366 34088 ft 444 kts 269°
2026-05-07 11:34 61.27451 -154.63184 34089 ft 443 kts 269°
2026-05-07 11:34 61.27280 -154.75967 34084 ft 442 kts 269°
2026-05-07 11:35 61.27097 -154.88733 34089 ft 442 kts 269°
2026-05-07 11:35 61.26903 -155.01483 34087 ft 441 kts 269°
2026-05-07 11:36 61.26697 -155.14222 34087 ft 441 kts 269°
2026-05-07 11:36 61.26479 -155.26955 34087 ft 441 kts 268°
2026-05-07 11:37 61.26249 -155.39682 34090 ft 441 kts 268°
2026-05-07 11:37 61.26007 -155.52415 34093 ft 441 kts 268°
2026-05-07 11:38 61.25754 -155.65142 34101 ft 441 kts 268°
2026-05-07 11:38 61.25489 -155.77868 34083 ft 441 kts 268°
2026-05-07 11:39 61.25214 -155.90580 34089 ft 440 kts 268°
2026-05-07 11:39 61.24969 -156.03286 34100 ft 440 kts 270°
2026-05-07 11:40 61.25011 -156.15990 34103 ft 440 kts 272°
2026-05-07 11:40 61.25124 -156.28713 34103 ft 440 kts 272°
2026-05-07 11:41 61.25208 -156.41427 34100 ft 440 kts 272°
2026-05-07 11:41 61.25259 -156.54140 34101 ft 440 kts 271°
2026-05-07 11:42 61.25289 -156.66850 34108 ft 440 kts 271°
2026-05-07 11:42 61.25307 -156.79567 34105 ft 440 kts 271°
2026-05-07 11:43 61.25312 -156.92274 34110 ft 440 kts 271°
2026-05-07 11:43 61.25307 -157.04983 34107 ft 440 kts 271°
2026-05-07 11:44 61.25289 -157.17685 34114 ft 440 kts 271°
2026-05-07 11:44 61.25260 -157.30385 34111 ft 440 kts 271°
2026-05-07 11:45 61.25219 -157.43089 34116 ft 440 kts 271°
2026-05-07 11:45 61.25166 -157.55772 34117 ft 439 kts 271°
2026-05-07 11:46 61.25101 -157.68459 34122 ft 439 kts 271°
2026-05-07 11:46 61.25024 -157.81146 34123 ft 439 kts 271°
2026-05-07 11:47 61.24936 -157.93837 34134 ft 440 kts 271°
2026-05-07 11:47 61.24835 -158.06542 34137 ft 440 kts 271°
2026-05-07 11:48 61.24723 -158.19251 34138 ft 440 kts 271°
2026-05-07 11:48 61.24598 -158.31961 34139 ft 441 kts 271°
2026-05-07 11:49 61.24462 -158.44686 34135 ft 440 kts 270°
2026-05-07 11:49 61.24314 -158.57393 34136 ft 440 kts 270°
2026-05-07 11:50 61.24154 -158.70089 34134 ft 440 kts 271°
2026-05-07 11:50 61.23982 -158.82793 34138 ft 440 kts 271°
2026-05-07 11:51 61.23798 -158.95508 34141 ft 440 kts 271°
2026-05-07 11:51 61.23602 -159.08213 34143 ft 440 kts 270°
2026-05-07 11:52 61.23395 -159.20925 34140 ft 441 kts 270°
2026-05-07 11:52 61.23175 -159.33626 34130 ft 440 kts 270°
2026-05-07 11:53 61.22944 -159.46326 34123 ft 440 kts 271°
2026-05-07 11:53 61.22700 -159.59038 34126 ft 441 kts 270°
2026-05-07 11:54 61.22445 -159.71768 34130 ft 442 kts 270°
2026-05-07 11:54 61.22176 -159.84523 34127 ft 443 kts 270°
2026-05-07 11:55 61.21896 -159.97292 34134 ft 443 kts 270°
2026-05-07 11:55 61.21603 -160.10075 34125 ft 444 kts 270°
2026-05-07 11:56 61.21297 -160.22857 34130 ft 444 kts 271°
2026-05-07 11:56 61.20980 -160.35650 34129 ft 444 kts 270°
2026-05-07 11:57 61.20650 -160.48463 34133 ft 445 kts 270°
2026-05-07 11:57 61.20307 -160.61285 34133 ft 445 kts 270°
2026-05-07 11:58 61.19952 -160.74110 34139 ft 446 kts 270°
2026-05-07 11:58 61.19585 -160.86940 34139 ft 446 kts 270°
2026-05-07 11:59 61.19205 -160.99771 34134 ft 446 kts 270°
2026-05-07 11:59 61.18814 -161.12604 34138 ft 447 kts 270°
2026-05-07 12:00 61.18409 -161.25469 34147 ft 448 kts 270°
2026-05-07 12:00 61.17991 -161.38370 34155 ft 449 kts 270°
2026-05-07 12:01 61.17559 -161.51301 34153 ft 450 kts 270°
2026-05-07 12:01 61.17114 -161.64255 34151 ft 451 kts 270°
2026-05-07 12:02 61.16656 -161.77220 34167 ft 452 kts 270°
2026-05-07 12:02 61.16185 -161.90202 34177 ft 452 kts 270°
2026-05-07 12:03 61.15700 -162.03209 34182 ft 453 kts 270°
2026-05-07 12:03 61.15203 -162.16225 34183 ft 454 kts 270°
2026-05-07 12:04 61.14779 -162.27042 34185 ft 454 kts 270°
2026-05-07 12:04 61.14259 -162.40052 34152 ft 454 kts 270°
2026-05-07 12:05 61.13726 -162.53065 34177 ft 454 kts 270°
2026-05-07 12:05 61.13180 -162.66084 34190 ft 454 kts 270°
2026-05-07 12:06 61.12621 -162.79115 34185 ft 455 kts 270°
2026-05-07 12:06 61.12051 -162.92162 34191 ft 455 kts 270°
2026-05-07 12:07 61.11135 -163.05162 34187 ft 462 kts 260°
2026-05-07 12:07 61.09329 -163.17957 34162 ft 464 kts 258°
2026-05-07 12:08 61.07448 -163.30721 34185 ft 465 kts 259°
2026-05-07 12:08 61.05603 -163.43515 34196 ft 465 kts 259°
2026-05-07 12:09 61.03774 -163.56338 34194 ft 466 kts 259°
2026-05-07 12:09 61.01936 -163.69176 34193 ft 467 kts 259°
2026-05-07 12:10 61.00084 -163.82000 34185 ft 467 kts 259°
2026-05-07 12:10 60.98217 -163.94820 34194 ft 467 kts 259°
2026-05-07 12:11 60.96338 -164.07627 34183 ft 467 kts 258°
2026-05-07 12:11 60.94443 -164.20435 34186 ft 468 kts 258°
2026-05-07 12:12 60.92533 -164.33256 34200 ft 470 kts 258°
2026-05-07 12:12 60.90605 -164.46099 34198 ft 471 kts 258°
2026-05-07 12:13 60.88661 -164.58947 34200 ft 471 kts 258°
2026-05-07 12:13 60.86703 -164.71793 34198 ft 472 kts 258°
2026-05-07 12:14 60.84734 -164.84618 34196 ft 471 kts 257°
2026-05-07 12:14 60.82757 -164.97417 34192 ft 471 kts 257°
2026-05-07 12:15 60.80762 -165.10203 34199 ft 471 kts 257°
2026-05-07 12:15 60.78754 -165.22970 34192 ft 471 kts 257°
2026-05-07 12:16 60.76735 -165.35730 34198 ft 472 kts 257°
2026-05-07 12:16 60.74701 -165.48499 34188 ft 472 kts 257°
2026-05-07 12:17 60.72653 -165.61266 34181 ft 473 kts 256°
2026-05-07 12:17 60.70590 -165.74029 34173 ft 473 kts 256°
2026-05-07 12:18 60.68515 -165.86777 34171 ft 473 kts 256°
2026-05-07 12:18 60.66427 -165.99514 34172 ft 473 kts 256°
2026-05-07 12:19 60.64327 -166.12238 34171 ft 473 kts 256°
2026-05-07 12:19 60.62216 -166.24935 34151 ft 473 kts 256°
2026-05-07 12:20 60.60091 -166.37623 34160 ft 473 kts 255°
2026-05-07 12:20 60.57955 -166.50299 34164 ft 474 kts 255°
2026-05-07 12:21 60.55803 -166.62975 34173 ft 475 kts 255°
2026-05-07 12:21 60.53636 -166.75650 34166 ft 475 kts 255°
2026-05-07 12:22 60.51457 -166.88314 34163 ft 475 kts 255°
2026-05-07 12:22 60.49263 -167.00971 34167 ft 475 kts 255°
2026-05-07 12:23 60.47059 -167.13608 34157 ft 475 kts 254°
2026-05-07 12:23 60.44844 -167.26219 34159 ft 475 kts 254°
2026-05-07 12:24 60.42617 -167.38811 34154 ft 475 kts 253°
2026-05-07 12:24 60.40377 -167.51399 34171 ft 476 kts 253°
2026-05-07 12:25 60.38120 -167.63994 34166 ft 477 kts 253°
2026-05-07 12:25 60.35849 -167.76586 34164 ft 477 kts 253°
2026-05-07 12:26 60.33563 -167.89180 34150 ft 477 kts 253°
2026-05-07 12:26 60.31268 -168.01749 34165 ft 477 kts 253°
2026-05-07 12:27 60.28984 -168.14309 34169 ft 477 kts 253°
2026-05-07 12:27 60.26725 -168.26872 34165 ft 477 kts 253°
2026-05-07 12:28 60.24459 -168.39411 34166 ft 477 kts 253°
2026-05-07 12:28 60.22174 -168.51948 34160 ft 477 kts 253°
2026-05-07 12:29 60.19872 -168.64480 34158 ft 478 kts 252°
2026-05-07 12:29 60.17556 -168.76999 34170 ft 478 kts 252°
2026-05-07 12:30 60.15224 -168.89525 34166 ft 479 kts 252°
2026-05-07 12:30 60.12878 -169.02045 34171 ft 479 kts 252°
2026-05-07 12:31 60.10518 -169.14557 34171 ft 480 kts 252°
2026-05-07 12:31 60.08147 -169.27048 34167 ft 480 kts 252°
2026-05-07 12:32 60.05765 -169.39520 34162 ft 479 kts 251°
2026-05-07 12:32 60.03374 -169.51957 34154 ft 479 kts 251°
2026-05-07 12:33 59.99763 -169.70594 34177 ft 480 kts 251°
2026-05-07 12:33 59.97336 -169.83024 34168 ft 481 kts 251°
2026-05-07 12:34 59.94895 -169.95445 34169 ft 481 kts 251°
2026-05-07 12:34 59.92440 -170.07864 34152 ft 481 kts 250°
2026-05-07 12:35 59.89972 -170.20263 34163 ft 481 kts 250°
2026-05-07 12:35 59.87495 -170.32636 34170 ft 481 kts 250°
2026-05-07 12:36 59.85005 -170.44995 34168 ft 481 kts 250°
2026-05-07 12:36 59.82504 -170.57337 34168 ft 481 kts 249°
2026-05-07 12:37 59.79990 -170.69664 34173 ft 481 kts 249°
2026-05-07 12:37 59.77464 -170.81979 34157 ft 482 kts 249°
2026-05-07 12:38 59.74925 -170.94276 34168 ft 481 kts 249°
2026-05-07 12:38 59.72377 -171.06550 34172 ft 481 kts 249°
2026-05-07 12:39 59.69834 -171.18724 34171 ft 482 kts 248°
2026-05-07 12:39 59.67260 -171.30971 34172 ft 482 kts 248°
2026-05-07 12:40 59.64677 -171.43190 34171 ft 482 kts 248°
2026-05-07 12:40 59.62083 -171.55391 34167 ft 481 kts 248°
2026-05-07 12:41 59.59481 -171.67557 34174 ft 481 kts 247°
2026-05-07 12:41 59.56870 -171.79699 34168 ft 480 kts 247°
2026-05-07 12:42 59.54256 -171.91803 34170 ft 480 kts 248°
2026-05-07 12:42 59.51743 -172.03981 34172 ft 479 kts 248°
2026-05-07 12:43 59.49280 -172.16172 34171 ft 479 kts 248°
2026-05-07 12:43 59.46798 -172.28337 34164 ft 479 kts 248°
2026-05-07 12:44 59.44294 -172.40467 34167 ft 479 kts 248°
2026-05-07 12:44 59.41775 -172.52566 34166 ft 478 kts 248°
2026-05-07 12:45 59.39247 -172.64636 34172 ft 478 kts 247°
2026-05-07 12:45 59.36711 -172.76680 34165 ft 477 kts 247°
2026-05-07 12:46 59.34169 -172.88682 34157 ft 476 kts 247°
2026-05-07 12:46 59.32050 -172.98632 34163 ft 476 kts 247°
2026-05-07 12:47 59.29495 -173.10570 34164 ft 475 kts 247°
2026-05-07 12:47 59.26929 -173.22486 34157 ft 475 kts 247°
2026-05-07 12:48 59.24356 -173.34371 34155 ft 475 kts 246°
2026-05-07 12:48 59.21771 -173.46242 34161 ft 475 kts 246°
2026-05-07 12:49 59.19173 -173.58104 34155 ft 475 kts 246°
2026-05-07 12:49 59.16570 -173.69922 34160 ft 474 kts 246°
2026-05-07 12:50 59.13958 -173.81714 34156 ft 474 kts 246°
2026-05-07 12:50 59.11338 -173.93480 34154 ft 473 kts 246°
2026-05-07 12:51 59.08711 -174.05214 34157 ft 473 kts 246°
2026-05-07 12:51 59.06074 -174.16935 34157 ft 473 kts 246°
2026-05-07 12:52 59.03458 -174.28658 34156 ft 473 kts 246°
2026-05-07 12:52 59.00909 -174.40416 34153 ft 472 kts 246°
2026-05-07 12:53 58.98361 -174.52148 34153 ft 472 kts 246°
2026-05-07 12:53 58.95796 -174.63846 34151 ft 471 kts 246°
2026-05-07 12:54 58.93217 -174.75511 34150 ft 471 kts 246°
2026-05-07 12:54 58.90631 -174.87131 34139 ft 469 kts 247°
2026-05-07 12:55 58.88050 -174.98672 34148 ft 466 kts 247°
2026-05-07 12:55 58.85474 -175.10126 34142 ft 464 kts 246°
2026-05-07 12:56 58.82899 -175.21520 34136 ft 462 kts 246°
2026-05-07 12:56 58.80320 -175.32867 34134 ft 461 kts 246°
2026-05-07 12:57 58.77736 -175.44176 34145 ft 461 kts 246°
2026-05-07 12:57 58.75142 -175.55467 34136 ft 461 kts 246°
2026-05-07 12:58 58.72538 -175.66743 34126 ft 461 kts 245°
2026-05-07 12:58 58.69919 -175.78026 34135 ft 463 kts 245°
2026-05-07 12:59 58.67280 -175.89333 34129 ft 464 kts 245°
2026-05-07 12:59 58.64622 -176.00663 34135 ft 466 kts 244°
2026-05-07 13:00 58.61943 -176.12019 34131 ft 468 kts 244°
2026-05-07 13:00 58.59249 -176.23385 34123 ft 469 kts 244°
2026-05-07 13:01 58.56538 -176.34760 34120 ft 470 kts 244°
2026-05-07 13:01 58.53812 -176.46135 34121 ft 470 kts 243°
2026-05-07 13:02 58.51073 -176.57510 34115 ft 471 kts 244°
2026-05-07 13:02 58.48322 -176.68872 34117 ft 471 kts 243°
2026-05-07 13:03 58.45565 -176.80206 34113 ft 471 kts 243°
2026-05-07 13:03 58.42797 -176.91524 34117 ft 470 kts 243°
2026-05-07 13:04 58.40018 -177.02836 34101 ft 471 kts 242°
2026-05-07 13:04 58.37230 -177.14121 34102 ft 471 kts 242°
2026-05-07 13:05 58.34438 -177.25393 34104 ft 471 kts 242°
2026-05-07 13:05 58.31639 -177.36651 34093 ft 470 kts 242°
2026-05-07 13:06 58.28833 -177.47883 34096 ft 470 kts 242°
2026-05-07 13:06 58.26016 -177.59104 34101 ft 470 kts 242°
2026-05-07 13:07 58.23188 -177.70314 34087 ft 471 kts 242°
2026-05-07 13:07 58.20351 -177.81498 34083 ft 470 kts 242°
2026-05-07 13:08 58.17506 -177.92657 34090 ft 470 kts 241°
2026-05-07 13:08 58.14653 -178.03794 34077 ft 470 kts 241°
2026-05-07 13:09 58.11791 -178.14909 34073 ft 470 kts 241°
2026-05-07 13:09 58.08918 -178.26011 34077 ft 470 kts 240°
2026-05-07 13:10 58.06034 -178.37100 34078 ft 470 kts 240°
2026-05-07 13:10 58.03139 -178.48177 34069 ft 470 kts 240°
2026-05-07 13:11 58.00235 -178.59233 34057 ft 470 kts 240°
2026-05-07 13:11 57.97322 -178.70269 34060 ft 470 kts 240°
2026-05-07 13:12 57.94399 -178.81291 34077 ft 470 kts 239°
2026-05-07 13:12 57.91466 -178.92294 34071 ft 470 kts 238°
2026-05-07 13:13 57.88529 -179.03262 34049 ft 469 kts 238°
2026-05-07 13:13 57.85587 -179.14194 34044 ft 468 kts 238°
2026-05-07 13:14 57.82640 -179.25090 34048 ft 468 kts 238°
2026-05-07 13:14 57.79689 -179.35952 34032 ft 467 kts 238°
2026-05-07 13:15 57.76729 -179.46791 34031 ft 467 kts 238°
2026-05-07 13:15 57.73764 -179.57597 34033 ft 467 kts 238°
2026-05-07 13:16 57.70789 -179.68392 34034 ft 467 kts 238°
2026-05-07 13:16 57.67805 -179.79166 34024 ft 467 kts 237°
2026-05-07 13:17 57.64812 -179.89923 34039 ft 467 kts 237°
2026-05-07 13:17 57.61808 179.99332 34051 ft 467 kts 237°
2026-05-07 13:18 57.58789 179.88584 34025 ft 468 kts 236°
2026-05-07 13:18 57.55754 179.77830 34017 ft 469 kts 236°
2026-05-07 13:19 57.52709 179.67088 34016 ft 470 kts 236°
2026-05-07 13:19 57.49650 179.56349 34013 ft 470 kts 236°
2026-05-07 13:20 57.46582 179.45626 34002 ft 470 kts 236°
2026-05-07 13:20 57.43503 179.34917 34010 ft 471 kts 235°
2026-05-07 13:21 57.40408 179.24201 34004 ft 471 kts 235°
2026-05-07 13:21 57.37303 179.13501 34016 ft 471 kts 235°
2026-05-07 13:22 57.34187 179.02812 33991 ft 472 kts 234°
2026-05-07 13:22 57.31061 178.92135 33984 ft 471 kts 234°
2026-05-07 13:23 57.27931 178.81495 33987 ft 471 kts 234°
2026-05-07 13:23 57.24791 178.70870 33976 ft 471 kts 234°
2026-05-07 13:24 57.21640 178.60258 33973 ft 471 kts 234°
2026-05-07 13:24 57.18481 178.49665 33972 ft 471 kts 234°
2026-05-07 13:25 57.15315 178.39097 33966 ft 471 kts 234°
2026-05-07 13:25 57.12141 178.28547 33957 ft 471 kts 234°
2026-05-07 13:26 57.08958 178.18019 34004 ft 472 kts 233°
2026-05-07 13:26 57.06295 178.09250 33964 ft 473 kts 233°
2026-05-07 13:27 57.03084 177.98711 33945 ft 473 kts 233°
2026-05-07 13:27 56.99866 177.88199 33943 ft 473 kts 233°
2026-05-07 13:28 56.96637 177.77697 33943 ft 473 kts 233°
2026-05-07 13:28 56.93403 177.67225 33942 ft 472 kts 233°
2026-05-07 13:29 56.90153 177.56751 33928 ft 474 kts 233°
2026-05-07 13:29 56.86890 177.46277 33927 ft 474 kts 233°
2026-05-07 13:30 56.83615 177.35806 33929 ft 475 kts 233°
2026-05-07 13:30 56.80318 177.25360 33937 ft 475 kts 233°
2026-05-07 13:31 56.77000 177.14928 33923 ft 476 kts 233°
2026-05-07 13:31 56.73669 177.04496 33937 ft 477 kts 233°
2026-05-07 13:32 56.70323 176.94052 33920 ft 477 kts 233°
2026-05-07 13:32 56.66968 176.83620 33903 ft 478 kts 233°
2026-05-07 13:33 56.63602 176.73199 33896 ft 478 kts 233°
2026-05-07 13:33 56.60230 176.62805 33896 ft 478 kts 233°
2026-05-07 13:34 56.55152 176.47244 33897 ft 478 kts 233°
2026-05-07 13:35 56.51754 176.36886 33892 ft 478 kts 233°
2026-05-07 13:35 56.48346 176.26539 33881 ft 478 kts 233°
2026-05-07 13:36 56.44931 176.16217 33871 ft 478 kts 233°
2026-05-07 13:36 56.41508 176.05915 33869 ft 478 kts 233°
2026-05-07 13:37 56.38079 175.95640 33903 ft 478 kts 233°
2026-05-07 13:37 56.34633 175.85362 33889 ft 479 kts 233°
2026-05-07 13:38 56.31179 175.75100 33858 ft 479 kts 233°
2026-05-07 13:38 56.27719 175.64862 33861 ft 479 kts 233°
2026-05-07 13:39 56.24251 175.54644 33865 ft 479 kts 233°
2026-05-07 13:39 56.20771 175.44437 33851 ft 479 kts 233°
2026-05-07 13:40 56.17283 175.34251 33854 ft 479 kts 233°
2026-05-07 13:40 56.13787 175.24081 33849 ft 478 kts 233°
2026-05-07 13:41 56.10291 175.13952 33841 ft 478 kts 233°
2026-05-07 13:41 56.06788 175.03846 33837 ft 477 kts 233°
2026-05-07 13:42 56.03278 174.93765 33831 ft 477 kts 233°
2026-05-07 13:42 55.99764 174.83712 33830 ft 477 kts 233°
2026-05-07 13:43 55.96242 174.73680 33824 ft 477 kts 233°
2026-05-07 13:43 55.92711 174.63664 33841 ft 477 kts 233°
2026-05-07 13:44 55.89176 174.53675 33833 ft 476 kts 233°
2026-05-07 13:44 55.85636 174.43716 33826 ft 476 kts 233°
2026-05-07 13:45 55.82091 174.33783 33841 ft 475 kts 233°
2026-05-07 13:45 55.78542 174.23876 33821 ft 474 kts 233°
2026-05-07 13:46 55.74992 174.14008 33811 ft 474 kts 233°
2026-05-07 13:46 55.71440 174.04175 33814 ft 473 kts 232°
2026-05-07 13:47 55.67884 173.94369 33814 ft 473 kts 232°
2026-05-07 13:47 55.64320 173.84582 33810 ft 473 kts 232°
2026-05-07 13:48 55.60749 173.74817 33811 ft 473 kts 233°
2026-05-07 13:48 55.57173 173.65072 33796 ft 472 kts 233°
2026-05-07 13:49 55.53593 173.55357 33801 ft 472 kts 233°
2026-05-07 13:49 55.50006 173.45662 33797 ft 472 kts 233°
2026-05-07 13:50 55.46413 173.35989 33806 ft 471 kts 233°
2026-05-07 13:50 55.42813 173.26336 33801 ft 472 kts 233°
2026-05-07 13:51 55.39203 173.16693 33794 ft 472 kts 233°
2026-05-07 13:51 55.35587 173.07073 33786 ft 471 kts 233°
2026-05-07 13:52 55.31967 172.97479 33789 ft 471 kts 233°
2026-05-07 13:52 55.28340 172.87903 33783 ft 471 kts 233°
2026-05-07 13:53 55.24706 172.78347 33795 ft 471 kts 233°
2026-05-07 13:53 55.21064 172.68804 33778 ft 471 kts 233°
2026-05-07 13:54 55.17416 172.59286 33777 ft 471 kts 233°
2026-05-07 13:54 55.13763 172.49790 33772 ft 471 kts 233°
2026-05-07 13:55 55.10104 172.40313 33772 ft 470 kts 233°
2026-05-07 13:55 55.06438 172.30857 33786 ft 470 kts 233°
2026-05-07 13:56 55.02764 172.21413 33770 ft 470 kts 233°
2026-05-07 13:56 54.99084 172.11991 33762 ft 470 kts 233°
2026-05-07 13:57 54.95403 172.02597 33760 ft 470 kts 233°
2026-05-07 13:57 54.91606 171.93368 33759 ft 468 kts 229°
2026-05-07 13:58 54.87471 171.84640 33761 ft 467 kts 227°
2026-05-07 13:58 54.83283 171.76013 33763 ft 467 kts 228°
2026-05-07 13:59 54.79117 171.67353 33752 ft 467 kts 229°
2026-05-07 13:59 54.74973 171.58689 33756 ft 467 kts 229°
2026-05-07 14:00 54.70830 171.50032 33753 ft 467 kts 229°
2026-05-07 14:00 54.66684 171.41400 33757 ft 466 kts 229°
2026-05-07 14:01 54.62533 171.32792 33767 ft 466 kts 229°
2026-05-07 14:01 54.58377 171.24205 33753 ft 466 kts 229°
2026-05-07 14:02 54.54220 171.15647 33746 ft 465 kts 229°
2026-05-07 14:02 54.50062 171.07116 33753 ft 465 kts 229°
2026-05-07 14:03 54.45925 170.98659 33753 ft 465 kts 229°
2026-05-07 14:03 54.41757 170.90166 33748 ft 465 kts 229°
2026-05-07 14:04 54.37587 170.81698 33758 ft 464 kts 229°
2026-05-07 14:04 54.33419 170.73266 33742 ft 463 kts 229°
2026-05-07 14:05 54.29255 170.64868 33752 ft 462 kts 229°
2026-05-07 14:05 54.25091 170.56500 33751 ft 462 kts 229°
2026-05-07 14:06 54.20921 170.48149 33749 ft 461 kts 229°
2026-05-07 14:06 54.16750 170.39822 33752 ft 461 kts 229°
2026-05-07 14:07 54.12576 170.31520 33748 ft 461 kts 229°
2026-05-07 14:07 54.08401 170.23242 33740 ft 460 kts 230°
2026-05-07 14:08 54.04229 170.14999 33751 ft 460 kts 229°
2026-05-07 14:08 54.00755 170.08155 33754 ft 460 kts 229°
2026-05-07 14:09 53.95866 169.98557 33748 ft 459 kts 229°
2026-05-07 14:09 53.92358 169.91691 33745 ft 459 kts 229°
2026-05-07 14:10 53.88192 169.83565 33752 ft 460 kts 229°
2026-05-07 14:10 53.83992 169.75398 33759 ft 460 kts 229°
2026-05-07 14:11 53.79784 169.67242 33742 ft 460 kts 229°
2026-05-07 14:11 53.75575 169.59112 33753 ft 460 kts 230°
2026-05-07 14:12 53.71357 169.50992 33766 ft 459 kts 230°
2026-05-07 14:12 53.67142 169.42898 33756 ft 459 kts 230°
2026-05-07 14:13 53.62976 169.34762 33753 ft 458 kts 234°
2026-05-07 14:13 53.59764 169.25560 33760 ft 456 kts 243°
2026-05-07 14:14 53.56814 169.16120 33753 ft 456 kts 243°
2026-05-07 14:14 53.53833 169.06715 33761 ft 456 kts 243°
2026-05-07 14:15 53.50823 168.97354 33757 ft 455 kts 242°
2026-05-07 14:15 53.47804 168.88029 33754 ft 454 kts 242°
2026-05-07 14:16 53.44783 168.78728 33753 ft 454 kts 242°
2026-05-07 14:16 53.41759 168.69451 33753 ft 453 kts 242°
2026-05-07 14:17 53.38728 168.60189 33758 ft 453 kts 242°
2026-05-07 14:17 53.35695 168.50952 33753 ft 452 kts 242°
2026-05-07 14:18 53.32660 168.41737 33746 ft 452 kts 242°
2026-05-07 14:18 53.29618 168.32546 33748 ft 451 kts 242°
2026-05-07 14:19 53.26562 168.23385 33745 ft 451 kts 242°
2026-05-07 14:19 53.23498 168.14236 33746 ft 451 kts 242°
2026-05-07 14:20 53.20432 168.05110 33743 ft 450 kts 242°
2026-05-07 14:20 53.17366 167.96010 33741 ft 450 kts 242°
2026-05-07 14:21 53.14298 167.86939 33742 ft 449 kts 242°
2026-05-07 14:21 53.11225 167.77886 33732 ft 448 kts 242°
2026-05-07 14:22 53.08157 167.68878 33732 ft 447 kts 242°
2026-05-07 14:22 53.05092 167.59915 33734 ft 445 kts 242°
2026-05-07 14:23 53.02032 167.50996 33731 ft 444 kts 242°
2026-05-07 14:23 52.98973 167.42115 33734 ft 443 kts 242°
2026-05-07 14:24 52.95913 167.33259 33734 ft 442 kts 242°
2026-05-07 14:24 52.92847 167.24418 33735 ft 442 kts 242°
2026-05-07 14:25 52.89777 167.15599 33732 ft 441 kts 242°
2026-05-07 14:25 52.86704 167.06803 33731 ft 441 kts 242°
2026-05-07 14:26 52.83629 166.98029 33731 ft 441 kts 242°
2026-05-07 14:26 52.80549 166.89274 33737 ft 441 kts 242°
2026-05-07 14:27 52.77462 166.80529 33729 ft 441 kts 242°
2026-05-07 14:27 52.74373 166.71812 33721 ft 439 kts 242°
2026-05-07 14:28 52.71292 166.63146 33722 ft 437 kts 242°
2026-05-07 14:28 52.68218 166.54529 33731 ft 435 kts 242°
2026-05-07 14:29 52.65146 166.45944 33731 ft 435 kts 242°
2026-05-07 14:29 52.62072 166.37383 33731 ft 434 kts 242°
2026-05-07 14:30 52.58994 166.28843 33733 ft 434 kts 242°
2026-05-07 14:30 52.55911 166.20319 33734 ft 433 kts 242°
2026-05-07 14:31 52.52827 166.11818 33738 ft 433 kts 242°
2026-05-07 14:31 52.49734 166.03322 33741 ft 433 kts 242°
2026-05-07 14:32 52.46635 165.94838 33737 ft 434 kts 242°
2026-05-07 14:32 52.43534 165.86379 33735 ft 432 kts 242°
2026-05-07 14:33 52.40432 165.77944 33732 ft 432 kts 242°
2026-05-07 14:33 52.37331 165.69541 33733 ft 430 kts 242°
2026-05-07 14:34 52.34238 165.61186 33740 ft 428 kts 242°
2026-05-07 14:34 52.31148 165.52867 33745 ft 428 kts 242°
2026-05-07 14:35 52.28057 165.44572 33741 ft 427 kts 242°
2026-05-07 14:35 52.24961 165.36290 33739 ft 427 kts 242°
2026-05-07 14:36 52.21859 165.28021 33750 ft 427 kts 242°
2026-05-07 14:36 52.18750 165.19758 33748 ft 428 kts 242°
2026-05-07 14:37 52.15635 165.11506 33749 ft 428 kts 242°
2026-05-07 14:37 52.10951 164.99150 33750 ft 427 kts 242°
2026-05-07 14:38 52.07825 164.90939 33757 ft 427 kts 242°
2026-05-07 14:38 52.04698 164.82749 33758 ft 426 kts 242°
2026-05-07 14:39 52.01566 164.74571 33736 ft 426 kts 242°
2026-05-07 14:39 51.98431 164.66416 33739 ft 425 kts 242°
2026-05-07 14:40 51.95303 164.58303 33745 ft 423 kts 242°
2026-05-07 14:40 51.92180 164.50227 33755 ft 422 kts 242°
2026-05-07 14:41 51.89058 164.42179 33758 ft 422 kts 242°
2026-05-07 14:41 51.85934 164.34151 33759 ft 421 kts 242°
2026-05-07 14:42 51.82805 164.26136 33759 ft 421 kts 242°
2026-05-07 14:42 51.79678 164.18151 33755 ft 420 kts 242°
2026-05-07 14:43 51.76536 164.10152 33761 ft 418 kts 242°
2026-05-07 14:43 51.73436 164.02284 33764 ft 418 kts 242°
2026-05-07 14:44 51.70316 163.94390 33764 ft 417 kts 242°
2026-05-07 14:44 51.67192 163.86507 33765 ft 417 kts 242°
2026-05-07 14:45 51.64064 163.78639 33768 ft 417 kts 242°
2026-05-07 14:45 51.60942 163.70811 33757 ft 414 kts 243°
2026-05-07 14:46 51.57826 163.63031 33764 ft 413 kts 243°
2026-05-07 14:46 51.54711 163.55276 33770 ft 412 kts 243°
2026-05-07 14:47 51.51598 163.47545 33769 ft 412 kts 243°
2026-05-07 14:47 51.48482 163.39826 33786 ft 411 kts 242°
2026-05-07 14:48 51.45369 163.32138 33776 ft 411 kts 242°
2026-05-07 14:48 51.42256 163.24473 33775 ft 410 kts 242°
2026-05-07 14:49 51.39142 163.16827 33777 ft 410 kts 242°
2026-05-07 14:49 51.36531 163.10433 33773 ft 409 kts 242°
2026-05-07 14:50 51.33411 163.02814 33764 ft 409 kts 242°
2026-05-07 14:50 51.30301 162.95245 33771 ft 406 kts 242°
2026-05-07 14:51 51.27206 162.87733 33782 ft 404 kts 242°
2026-05-07 14:51 51.24124 162.80274 33777 ft 400 kts 243°
2026-05-07 14:52 51.21091 162.72957 33779 ft 396 kts 243°
2026-05-07 14:52 51.18038 162.65608 33782 ft 394 kts 243°
2026-05-07 14:53 51.15019 162.58360 33790 ft 391 kts 243°
2026-05-07 14:53 51.12032 162.51209 33789 ft 390 kts 243°
2026-05-07 14:54 51.09030 162.44040 33789 ft 389 kts 243°
2026-05-07 14:54 51.06003 162.36835 33790 ft 389 kts 243°
2026-05-07 14:55 51.02991 162.29682 33792 ft 390 kts 242°
2026-05-07 14:55 50.99992 162.22583 33801 ft 389 kts 242°
2026-05-07 14:56 50.96974 162.15458 33790 ft 389 kts 242°
2026-05-07 14:56 50.93956 162.08353 33791 ft 388 kts 242°
2026-05-07 14:57 50.90919 162.01223 33794 ft 387 kts 242°
2026-05-07 14:57 50.87901 161.94156 33794 ft 387 kts 242°
2026-05-07 14:58 50.84905 161.87169 33778 ft 377 kts 243°
2026-05-07 14:58 50.82007 161.80433 33788 ft 368 kts 243°
2026-05-07 14:59 50.79139 161.73761 33797 ft 366 kts 243°
2026-05-07 14:59 50.76271 161.67106 33799 ft 367 kts 243°
2026-05-07 15:00 50.73393 161.60449 33802 ft 367 kts 242°
2026-05-07 15:00 50.70505 161.53787 33808 ft 368 kts 242°
2026-05-07 15:01 50.67605 161.47117 33807 ft 369 kts 242°
2026-05-07 15:01 50.64709 161.40475 33804 ft 370 kts 242°
2026-05-07 15:02 50.61767 161.33743 33804 ft 371 kts 242°
2026-05-07 15:02 50.58835 161.27054 33803 ft 371 kts 242°
2026-05-07 15:03 50.55898 161.20368 33811 ft 372 kts 242°
2026-05-07 15:03 50.52955 161.13686 33810 ft 372 kts 242°
2026-05-07 15:04 50.50010 161.07016 33807 ft 371 kts 242°
2026-05-07 15:04 50.47089 161.00420 33795 ft 368 kts 242°
2026-05-07 15:05 50.44170 160.93845 33806 ft 366 kts 242°
2026-05-07 15:05 50.41265 160.87315 33808 ft 364 kts 242°
2026-05-07 15:06 50.38366 160.80813 33816 ft 363 kts 242°
2026-05-07 15:06 50.35469 160.74331 33817 ft 363 kts 242°
2026-05-07 15:07 50.32572 160.67865 33815 ft 363 kts 242°
2026-05-07 15:07 50.29673 160.61411 33816 ft 363 kts 242°
2026-05-07 15:08 50.26769 160.54962 33815 ft 363 kts 242°
2026-05-07 15:08 50.23859 160.48513 33816 ft 363 kts 242°
2026-05-07 15:09 50.20944 160.42068 33818 ft 364 kts 242°
2026-05-07 15:09 50.18015 160.35628 33808 ft 364 kts 241°
2026-05-07 15:10 50.15072 160.29204 33820 ft 364 kts 241°
2026-05-07 15:10 50.12121 160.22777 33820 ft 365 kts 241°
2026-05-07 15:11 50.09166 160.16353 33769 ft 365 kts 241°
2026-05-07 15:11 50.06212 160.09946 33810 ft 364 kts 241°
2026-05-07 15:12 50.03256 160.03548 33821 ft 364 kts 241°
2026-05-07 15:12 50.00295 159.97153 33819 ft 364 kts 241°
2026-05-07 15:13 49.97331 159.90769 33820 ft 364 kts 241°
2026-05-07 15:13 49.94360 159.84384 33821 ft 365 kts 241°
2026-05-07 15:14 49.91385 159.78005 33821 ft 365 kts 241°
2026-05-07 15:14 49.88405 159.71632 33822 ft 365 kts 241°
2026-05-07 15:15 49.85421 159.65266 33821 ft 365 kts 241°
2026-05-07 15:15 49.82439 159.58918 33822 ft 365 kts 241°
2026-05-07 15:16 49.79445 159.52561 33821 ft 365 kts 241°
2026-05-07 15:16 49.76449 159.46211 33821 ft 365 kts 241°
2026-05-07 15:17 49.73449 159.39868 33821 ft 365 kts 241°
2026-05-07 15:17 49.70439 159.33531 33821 ft 366 kts 240°
2026-05-07 15:18 49.67376 159.27252 33810 ft 366 kts 240°
2026-05-07 15:18 49.64298 159.20997 33817 ft 366 kts 240°
2026-05-07 15:19 49.61220 159.14746 33822 ft 366 kts 240°
2026-05-07 15:19 49.58142 159.08499 33822 ft 366 kts 240°
2026-05-07 15:20 49.55061 159.02256 33822 ft 366 kts 240°
2026-05-07 15:20 49.51979 158.96025 33822 ft 366 kts 240°
2026-05-07 15:21 49.48891 158.89797 33813 ft 366 kts 240°
2026-05-07 15:21 49.45804 158.83583 33820 ft 366 kts 240°
2026-05-07 15:22 49.42712 158.77375 33819 ft 366 kts 240°
2026-05-07 15:22 49.39616 158.71172 33820 ft 366 kts 240°
2026-05-07 15:23 49.36517 158.64979 33814 ft 366 kts 240°
2026-05-07 15:23 49.33412 158.58789 33787 ft 366 kts 240°
2026-05-07 15:24 49.30315 158.52633 33809 ft 363 kts 240°
2026-05-07 15:24 49.27230 158.46511 33821 ft 363 kts 240°
2026-05-07 15:25 49.24148 158.40405 33816 ft 362 kts 240°
2026-05-07 15:25 49.21065 158.34314 33808 ft 362 kts 240°
2026-05-07 15:26 49.17979 158.28229 33813 ft 362 kts 240°
2026-05-07 15:26 49.14891 158.22157 33805 ft 362 kts 240°
2026-05-07 15:27 49.11801 158.16094 33810 ft 362 kts 240°
2026-05-07 15:27 49.08708 158.10038 33814 ft 362 kts 240°
2026-05-07 15:28 49.05608 158.03983 33814 ft 362 kts 240°
2026-05-07 15:28 49.02503 157.97933 33812 ft 362 kts 240°
2026-05-07 15:29 48.99393 157.91886 33810 ft 363 kts 240°
2026-05-07 15:29 48.96279 157.85844 33808 ft 363 kts 240°
2026-05-07 15:30 48.93689 157.80830 33748 ft 363 kts 240°
2026-05-07 15:30 48.90578 157.74823 33793 ft 361 kts 240°
2026-05-07 15:31 48.87472 157.68835 33801 ft 361 kts 240°
2026-05-07 15:31 48.84365 157.62859 33809 ft 360 kts 240°
2026-05-07 15:32 48.81256 157.56892 33804 ft 360 kts 241°
2026-05-07 15:32 48.78146 157.50936 33807 ft 360 kts 241°
2026-05-07 15:33 48.75036 157.44994 33806 ft 360 kts 240°
2026-05-07 15:33 48.71921 157.39056 33808 ft 360 kts 240°
2026-05-07 15:34 48.68802 157.33123 33810 ft 360 kts 240°
2026-05-07 15:34 48.65679 157.27196 33809 ft 360 kts 240°
2026-05-07 15:35 48.62554 157.21279 33799 ft 360 kts 240°
2026-05-07 15:35 48.59428 157.15372 33807 ft 360 kts 240°
2026-05-07 15:36 48.56297 157.09469 33805 ft 360 kts 240°
2026-05-07 15:36 48.53165 157.03577 33801 ft 359 kts 241°
2026-05-07 15:37 48.50030 156.97693 33805 ft 360 kts 241°
2026-05-07 15:37 48.46890 156.91811 33794 ft 360 kts 241°
2026-05-07 15:38 48.43745 156.85933 33801 ft 360 kts 241°
2026-05-07 15:38 48.40594 156.80056 33805 ft 361 kts 241°
2026-05-07 15:39 48.37457 156.74219 33806 ft 361 kts 241°
2026-05-07 15:39 48.34295 156.68349 33805 ft 361 kts 241°
2026-05-07 15:40 48.31130 156.62486 33776 ft 361 kts 241°
2026-05-07 15:40 48.27965 156.56636 33794 ft 361 kts 241°
2026-05-07 15:41 48.24796 156.50790 33806 ft 361 kts 241°
2026-05-07 15:41 48.21624 156.44953 33806 ft 361 kts 241°
2026-05-07 15:42 48.18447 156.39118 33802 ft 361 kts 241°
2026-05-07 15:42 48.15269 156.33293 33797 ft 361 kts 241°
2026-05-07 15:43 48.12085 156.27472 33795 ft 361 kts 241°
2026-05-07 15:43 48.08900 156.21659 33808 ft 361 kts 241°
2026-05-07 15:44 48.05709 156.15848 33803 ft 362 kts 241°
2026-05-07 15:44 48.02510 156.10038 33810 ft 362 kts 241°
2026-05-07 15:45 47.99309 156.04235 33800 ft 362 kts 241°
2026-05-07 15:45 47.96105 155.98439 33785 ft 362 kts 241°
2026-05-07 15:46 47.91301 155.89773 33806 ft 361 kts 241°
2026-05-07 15:47 47.88096 155.84006 33801 ft 361 kts 241°
2026-05-07 15:47 47.84892 155.78254 33808 ft 361 kts 241°
2026-05-07 15:48 47.81685 155.72507 33811 ft 361 kts 241°
2026-05-07 15:48 47.78475 155.66768 33801 ft 360 kts 241°
2026-05-07 15:49 47.75270 155.61051 33802 ft 359 kts 241°
2026-05-07 15:49 47.72064 155.55343 33813 ft 360 kts 240°
2026-05-07 15:50 47.68850 155.49631 33814 ft 361 kts 240°
2026-05-07 15:50 47.65626 155.43915 33814 ft 361 kts 240°
2026-05-07 15:51 47.62397 155.38202 33795 ft 362 kts 240°
2026-05-07 15:51 47.59164 155.32498 33808 ft 361 kts 240°
2026-05-07 15:52 47.55935 155.26811 33816 ft 361 kts 240°
2026-05-07 15:52 47.52703 155.21129 33812 ft 361 kts 240°
2026-05-07 15:53 47.49473 155.15462 33815 ft 360 kts 240°
2026-05-07 15:53 47.46238 155.09800 33820 ft 360 kts 240°
2026-05-07 15:54 47.43003 155.04148 33808 ft 360 kts 240°
2026-05-07 15:54 47.39770 154.98513 33783 ft 360 kts 240°
2026-05-07 15:55 47.36533 154.92881 33809 ft 361 kts 240°
2026-05-07 15:55 47.33282 154.87235 33824 ft 362 kts 240°
2026-05-07 15:56 47.30019 154.81582 33829 ft 362 kts 240°
2026-05-07 15:56 47.26748 154.75926 33828 ft 363 kts 240°
2026-05-07 15:57 47.23469 154.70271 33828 ft 363 kts 240°
2026-05-07 15:57 47.20186 154.64620 33828 ft 363 kts 240°
2026-05-07 15:58 47.16898 154.58973 33828 ft 363 kts 240°
2026-05-07 15:58 47.13611 154.53337 33826 ft 363 kts 240°
2026-05-07 15:59 47.10320 154.47708 33818 ft 363 kts 240°
2026-05-07 15:59 47.07033 154.42096 33824 ft 362 kts 240°
2026-05-07 16:00 47.03746 154.36496 33832 ft 362 kts 240°
2026-05-07 16:00 47.00457 154.30902 33795 ft 362 kts 240°
2026-05-07 16:01 46.97162 154.25309 33827 ft 364 kts 240°
2026-05-07 16:01 46.93845 154.19688 33817 ft 366 kts 240°
2026-05-07 16:02 46.90511 154.14055 33834 ft 367 kts 240°
2026-05-07 16:02 46.87167 154.08418 33833 ft 367 kts 240°
2026-05-07 16:03 46.83816 154.02780 33836 ft 368 kts 239°
2026-05-07 16:03 46.80461 153.97147 33835 ft 368 kts 239°
2026-05-07 16:04 46.77102 153.91518 33835 ft 368 kts 239°
2026-05-07 16:04 46.73745 153.85905 33835 ft 367 kts 239°
2026-05-07 16:05 46.70389 153.80304 33835 ft 367 kts 239°
2026-05-07 16:05 46.67032 153.74713 33840 ft 367 kts 239°
2026-05-07 16:06 46.63673 153.69130 33834 ft 366 kts 239°
2026-05-07 16:06 46.60311 153.63552 33829 ft 367 kts 239°
2026-05-07 16:07 46.56935 153.57961 33829 ft 369 kts 239°
2026-05-07 16:07 46.53541 153.52354 33852 ft 370 kts 239°
2026-05-07 16:08 46.50138 153.46745 33844 ft 370 kts 239°
2026-05-07 16:08 46.46727 153.41133 33839 ft 371 kts 239°
2026-05-07 16:09 46.43310 153.35524 33839 ft 371 kts 239°
2026-05-07 16:09 46.39890 153.29921 33831 ft 371 kts 238°
2026-05-07 16:10 46.36468 153.24325 33842 ft 371 kts 238°
2026-05-07 16:10 46.33041 153.18733 33845 ft 371 kts 238°
2026-05-07 16:11 46.29608 153.13141 33846 ft 371 kts 238°
2026-05-07 16:11 46.26176 153.07561 33850 ft 372 kts 238°
2026-05-07 16:12 46.23319 153.02926 33835 ft 371 kts 238°
2026-05-07 16:12 46.19865 152.97353 33843 ft 373 kts 238°
2026-05-07 16:13 46.16377 152.91790 33847 ft 374 kts 237°
2026-05-07 16:13 46.12875 152.86221 33847 ft 375 kts 237°
2026-05-07 16:14 46.09366 152.80647 33849 ft 376 kts 237°
2026-05-07 16:14 46.05853 152.75075 33843 ft 376 kts 237°
2026-05-07 16:15 46.02337 152.69507 33847 ft 376 kts 237°
2026-05-07 16:15 45.98815 152.63940 33855 ft 376 kts 237°
2026-05-07 16:16 45.95290 152.58381 33863 ft 376 kts 237°
2026-05-07 16:16 45.91761 152.52826 33843 ft 376 kts 237°
2026-05-07 16:17 45.88232 152.47282 33854 ft 376 kts 236°
2026-05-07 16:17 45.84704 152.41751 33857 ft 376 kts 236°
2026-05-07 16:18 45.81170 152.36222 33861 ft 376 kts 236°
2026-05-07 16:18 45.77636 152.30704 33860 ft 376 kts 236°
2026-05-07 16:19 45.74097 152.25189 33847 ft 376 kts 236°
2026-05-07 16:19 45.70559 152.19688 33860 ft 376 kts 236°
2026-05-07 16:20 45.67019 152.14193 33864 ft 376 kts 236°
2026-05-07 16:20 45.63474 152.08701 33861 ft 376 kts 236°
2026-05-07 16:21 45.59927 152.03219 33863 ft 376 kts 236°
2026-05-07 16:21 45.56376 151.97742 33862 ft 376 kts 236°
2026-05-07 16:22 45.52823 151.92271 33866 ft 376 kts 236°
2026-05-07 16:22 45.49266 151.86805 33846 ft 376 kts 236°
2026-05-07 16:23 45.45697 151.81330 33865 ft 378 kts 236°
2026-05-07 16:23 45.42111 151.75841 33869 ft 379 kts 236°
2026-05-07 16:24 45.38510 151.70341 33861 ft 380 kts 236°
2026-05-07 16:24 45.34903 151.64844 33866 ft 380 kts 235°
2026-05-07 16:25 45.31290 151.59349 33865 ft 381 kts 235°
2026-05-07 16:25 45.27673 151.53859 33869 ft 381 kts 235°
2026-05-07 16:26 45.24054 151.48376 33852 ft 381 kts 235°
2026-05-07 16:26 45.20433 151.42900 33859 ft 380 kts 235°
2026-05-07 16:27 45.16811 151.37435 33863 ft 380 kts 235°
2026-05-07 16:27 45.13191 151.31982 33861 ft 380 kts 235°
2026-05-07 16:28 45.09565 151.26532 33851 ft 381 kts 235°
2026-05-07 16:28 45.05927 151.21072 33858 ft 381 kts 235°
2026-05-07 16:29 45.02280 151.15613 33861 ft 382 kts 235°
2026-05-07 16:29 44.98627 151.10155 33860 ft 383 kts 234°
2026-05-07 16:30 44.94964 151.04694 33855 ft 383 kts 234°
2026-05-07 16:30 44.91302 150.99243 33865 ft 383 kts 234°
2026-05-07 16:31 44.87635 150.93798 33857 ft 383 kts 234°
2026-05-07 16:31 44.83967 150.88359 33867 ft 383 kts 234°
2026-05-07 16:32 44.80290 150.82919 33858 ft 383 kts 234°
2026-05-07 16:32 44.76612 150.77488 33856 ft 383 kts 234°
2026-05-07 16:33 44.72927 150.72059 33849 ft 384 kts 234°
2026-05-07 16:33 44.69236 150.66629 33862 ft 384 kts 234°
2026-05-07 16:34 44.65536 150.61198 33855 ft 385 kts 234°
2026-05-07 16:34 44.61832 150.55772 33855 ft 385 kts 234°
2026-05-07 16:35 44.58120 150.50346 33857 ft 385 kts 234°
2026-05-07 16:35 44.54429 150.44961 33856 ft 385 kts 234°
2026-05-07 16:36 44.50717 150.39555 33857 ft 385 kts 234°
2026-05-07 16:36 44.47002 150.34156 33858 ft 385 kts 234°
2026-05-07 16:37 44.43287 150.28767 33858 ft 385 kts 234°
2026-05-07 16:37 44.39568 150.23382 33846 ft 385 kts 233°
2026-05-07 16:38 44.35849 150.18008 33851 ft 385 kts 233°
2026-05-07 16:38 44.32118 150.12626 33861 ft 386 kts 233°
2026-05-07 16:39 44.28372 150.07234 33858 ft 387 kts 233°
2026-05-07 16:39 44.24617 150.01840 33858 ft 388 kts 233°
2026-05-07 16:40 44.20856 149.96448 33855 ft 388 kts 233°
2026-05-07 16:40 44.17091 149.91061 33860 ft 388 kts 233°
2026-05-07 16:41 44.13324 149.85682 33856 ft 388 kts 233°
2026-05-07 16:41 44.09530 149.80274 33856 ft 388 kts 233°
2026-05-07 16:42 44.05759 149.74910 33855 ft 388 kts 232°
2026-05-07 16:42 44.01988 149.69556 33827 ft 387 kts 232°
2026-05-07 16:43 43.98218 149.64213 33847 ft 388 kts 232°
2026-05-07 16:43 43.94461 149.58899 33860 ft 388 kts 232°
2026-05-07 16:44 43.90645 149.53512 33858 ft 389 kts 232°
2026-05-07 16:44 43.86875 149.48199 33860 ft 389 kts 232°
2026-05-07 16:45 43.83070 149.42850 33861 ft 390 kts 232°
2026-05-07 16:45 43.79266 149.37510 33861 ft 390 kts 232°
2026-05-07 16:46 43.75457 149.32175 33860 ft 390 kts 232°
2026-05-07 16:46 43.71646 149.26847 33852 ft 389 kts 232°
2026-05-07 16:47 43.67834 149.21527 33858 ft 389 kts 232°
2026-05-07 16:47 43.64019 149.16215 33851 ft 390 kts 232°
2026-05-07 16:48 43.60189 149.10889 33855 ft 391 kts 232°
2026-05-07 16:48 43.56347 149.05558 33854 ft 392 kts 231°
2026-05-07 16:49 43.52494 149.00222 33856 ft 393 kts 231°
2026-05-07 16:49 43.48635 148.94890 33859 ft 393 kts 231°
2026-05-07 16:50 43.44773 148.89563 33857 ft 393 kts 231°
2026-05-07 16:50 43.40906 148.84240 33860 ft 393 kts 231°
2026-05-07 16:51 43.37040 148.78927 33858 ft 393 kts 231°
2026-05-07 16:51 43.33177 148.73630 33858 ft 392 kts 231°
2026-05-07 16:52 43.29319 148.68347 33832 ft 392 kts 231°
2026-05-07 16:52 43.25454 148.63066 33850 ft 393 kts 231°
2026-05-07 16:53 43.21579 148.57780 33848 ft 393 kts 231°
2026-05-07 16:53 43.17695 148.52493 33860 ft 394 kts 230°
2026-05-07 16:54 43.13801 148.47203 33853 ft 394 kts 230°
2026-05-07 16:54 43.10534 148.42772 33859 ft 395 kts 230°
2026-05-07 16:55 43.06631 148.37489 33853 ft 395 kts 230°
2026-05-07 16:55 43.02727 148.32214 33861 ft 395 kts 230°
2026-05-07 16:56 42.98818 148.26942 33854 ft 395 kts 230°
2026-05-07 16:56 42.92953 148.19049 33843 ft 395 kts 230°
2026-05-07 16:57 42.89066 148.13831 33854 ft 395 kts 230°
2026-05-07 16:57 42.85117 148.08541 33859 ft 395 kts 230°
2026-05-07 16:58 42.81191 148.03290 33858 ft 396 kts 230°
2026-05-07 16:58 42.77261 147.98044 33858 ft 396 kts 230°
2026-05-07 16:59 42.73329 147.92805 33859 ft 396 kts 229°
2026-05-07 16:59 42.69421 147.87607 33858 ft 396 kts 229°
2026-05-07 17:00 42.65459 147.82349 33856 ft 395 kts 229°
2026-05-07 17:00 42.61550 147.77169 33855 ft 395 kts 229°
2026-05-07 17:01 42.57586 147.71927 33819 ft 395 kts 229°
2026-05-07 17:01 42.53664 147.66749 33844 ft 397 kts 229°
2026-05-07 17:02 42.49697 147.61521 33852 ft 398 kts 229°
2026-05-07 17:02 42.45716 147.56284 33850 ft 399 kts 229°
2026-05-07 17:03 42.41725 147.51043 33846 ft 400 kts 228°
2026-05-07 17:03 42.37723 147.45799 33844 ft 400 kts 228°
2026-05-07 17:04 42.33722 147.40557 33843 ft 401 kts 228°
2026-05-07 17:04 42.29719 147.35319 33844 ft 401 kts 228°
2026-05-07 17:05 42.25713 147.30085 33844 ft 401 kts 228°
2026-05-07 17:05 42.21706 147.24860 33843 ft 400 kts 228°
2026-05-07 17:06 42.17698 147.19643 33844 ft 400 kts 228°
2026-05-07 17:06 42.13689 147.14435 33844 ft 400 kts 228°
2026-05-07 17:07 42.09681 147.09236 33844 ft 400 kts 228°
2026-05-07 17:07 42.05670 147.04044 33844 ft 400 kts 228°
2026-05-07 17:08 42.01656 146.98857 33844 ft 400 kts 228°
2026-05-07 17:08 41.97641 146.93678 33843 ft 400 kts 228°
2026-05-07 17:09 41.93624 146.88504 33844 ft 400 kts 227°
2026-05-07 17:09 41.89605 146.83341 33844 ft 400 kts 227°
2026-05-07 17:10 41.85581 146.78175 33838 ft 401 kts 227°
2026-05-07 17:10 41.81550 146.73005 33846 ft 401 kts 227°
2026-05-07 17:11 41.77504 146.67826 33842 ft 402 kts 227°
2026-05-07 17:11 41.73453 146.62649 33844 ft 403 kts 227°
2026-05-07 17:12 41.69392 146.57469 33845 ft 403 kts 227°
2026-05-07 17:12 41.65324 146.52291 33837 ft 404 kts 227°
2026-05-07 17:13 41.61256 146.47121 33844 ft 403 kts 227°
2026-05-07 17:13 41.57186 146.41958 33844 ft 403 kts 227°
2026-05-07 17:14 41.53116 146.36804 33827 ft 403 kts 227°
2026-05-07 17:14 41.49046 146.31661 33838 ft 403 kts 227°
2026-05-07 17:15 41.44976 146.26527 33846 ft 402 kts 227°
2026-05-07 17:15 41.40909 146.21405 33846 ft 402 kts 227°
2026-05-07 17:16 41.36839 146.16288 33846 ft 402 kts 227°
2026-05-07 17:16 41.32770 146.11182 33842 ft 402 kts 227°
2026-05-07 17:17 41.28701 146.06086 33847 ft 402 kts 227°
2026-05-07 17:17 41.24628 146.00993 33844 ft 402 kts 227°
2026-05-07 17:18 41.20555 145.95910 33844 ft 402 kts 227°
2026-05-07 17:18 41.16481 145.90835 33842 ft 401 kts 226°
2026-05-07 17:19 41.12407 145.85769 33845 ft 401 kts 226°
2026-05-07 17:19 41.08331 145.80709 33838 ft 402 kts 226°
2026-05-07 17:20 41.04251 145.75653 33858 ft 402 kts 226°
2026-05-07 17:20 41.00165 145.70599 33844 ft 402 kts 226°
2026-05-07 17:21 40.96103 145.65583 33850 ft 402 kts 226°
2026-05-07 17:21 40.92008 145.60536 33843 ft 402 kts 226°
2026-05-07 17:22 40.87912 145.55496 33833 ft 402 kts 226°
2026-05-07 17:22 40.83809 145.50457 33825 ft 403 kts 226°
2026-05-07 17:23 40.79707 145.45428 33836 ft 403 kts 226°
2026-05-07 17:23 40.75601 145.40402 33847 ft 403 kts 226°
2026-05-07 17:24 40.71490 145.35379 33844 ft 403 kts 226°
2026-05-07 17:24 40.67376 145.30362 33843 ft 403 kts 226°
2026-05-07 17:25 40.63260 145.25351 33848 ft 403 kts 226°
2026-05-07 17:25 40.59142 145.20347 33845 ft 403 kts 226°
2026-05-07 17:26 40.55021 145.15347 33839 ft 403 kts 225°
2026-05-07 17:26 40.50895 145.10348 33833 ft 404 kts 225°
2026-05-07 17:27 40.46769 145.05358 33849 ft 403 kts 225°
2026-05-07 17:27 40.42645 145.00381 33848 ft 402 kts 225°
2026-05-07 17:28 40.38517 144.95413 33845 ft 403 kts 225°
2026-05-07 17:28 40.34384 144.90451 33847 ft 403 kts 225°
2026-05-07 17:29 40.30244 144.85486 33849 ft 403 kts 225°
2026-05-07 17:29 40.26101 144.80526 33841 ft 404 kts 225°
2026-05-07 17:30 40.21947 144.75559 33851 ft 405 kts 225°
2026-05-07 17:30 40.17777 144.70582 33850 ft 406 kts 225°
2026-05-07 17:31 40.13609 144.65617 33841 ft 405 kts 224°
2026-05-07 17:31 40.09438 144.60658 33848 ft 406 kts 224°
2026-05-07 17:32 40.05260 144.55697 33850 ft 406 kts 224°
2026-05-07 17:32 40.01786 144.51579 33848 ft 406 kts 224°
2026-05-07 17:33 39.96892 144.45789 33849 ft 406 kts 224°
2026-05-07 17:33 39.92700 144.40837 33847 ft 407 kts 224°
2026-05-07 17:34 39.88503 144.35888 33846 ft 407 kts 224°
2026-05-07 17:34 39.84302 144.30944 33847 ft 407 kts 224°
2026-05-07 17:35 39.80099 144.26006 33838 ft 407 kts 224°
2026-05-07 17:35 39.75894 144.21073 33847 ft 407 kts 224°
2026-05-07 17:36 39.72394 144.16975 33848 ft 408 kts 224°
2026-05-07 17:36 39.68179 144.12047 33847 ft 408 kts 224°
2026-05-07 17:37 39.63959 144.07120 33846 ft 408 kts 224°
2026-05-07 17:37 39.59737 144.02200 33846 ft 408 kts 224°
2026-05-07 17:38 39.55514 143.97288 33847 ft 408 kts 224°
2026-05-07 17:38 39.51286 143.92378 33837 ft 408 kts 224°
2026-05-07 17:39 39.47053 143.87471 33845 ft 408 kts 224°
2026-05-07 17:39 39.42817 143.82568 33844 ft 409 kts 224°
2026-05-07 17:40 39.38573 143.77664 33845 ft 409 kts 224°
2026-05-07 17:40 39.34323 143.72762 33844 ft 409 kts 224°
2026-05-07 17:41 39.30069 143.67864 33844 ft 409 kts 224°
2026-05-07 17:41 39.25817 143.62976 33844 ft 409 kts 224°
2026-05-07 17:42 39.21561 143.58093 33845 ft 409 kts 224°
2026-05-07 17:42 39.17305 143.53216 33823 ft 410 kts 223°
2026-05-07 17:43 39.13034 143.48331 33844 ft 411 kts 223°
2026-05-07 17:43 39.08746 143.43435 33843 ft 413 kts 223°
2026-05-07 17:44 39.04442 143.38528 33846 ft 414 kts 223°
2026-05-07 17:44 39.00129 143.33620 33843 ft 414 kts 223°
2026-05-07 17:45 38.95812 143.28714 33843 ft 414 kts 223°
2026-05-07 17:45 38.91495 143.23818 33848 ft 414 kts 223°
2026-05-07 17:46 38.87375 143.18682 33850 ft 412 kts 227°
2026-05-07 17:46 38.83382 143.13413 33842 ft 412 kts 227°
2026-05-07 17:47 38.79389 143.08155 33841 ft 412 kts 227°
2026-05-07 17:47 38.75383 143.02915 33845 ft 411 kts 227°
2026-05-07 17:48 38.71371 142.97688 33844 ft 411 kts 227°
2026-05-07 17:48 38.67356 142.92468 33844 ft 411 kts 227°
2026-05-07 17:49 38.63337 142.87253 33844 ft 411 kts 227°
2026-05-07 17:49 38.59316 142.82043 33844 ft 412 kts 227°
2026-05-07 17:50 38.55294 142.76839 33844 ft 412 kts 227°
2026-05-07 17:50 38.51267 142.71640 33841 ft 412 kts 227°
2026-05-07 17:51 38.47233 142.66438 33837 ft 413 kts 227°
2026-05-07 17:51 38.43189 142.61233 33846 ft 413 kts 227°
2026-05-07 17:52 38.39133 142.56021 33846 ft 414 kts 227°
2026-05-07 17:52 38.35071 142.50808 33855 ft 414 kts 227°
2026-05-07 17:53 38.31012 142.45603 33850 ft 414 kts 227°
2026-05-07 17:53 38.26981 142.40362 33849 ft 414 kts 227°
2026-05-07 17:54 38.22960 142.35123 33849 ft 414 kts 227°
2026-05-07 17:54 38.18938 142.29897 33849 ft 413 kts 227°
2026-05-07 17:55 38.14912 142.24679 33847 ft 414 kts 227°
2026-05-07 17:55 38.10906 142.19498 33841 ft 414 kts 227°
2026-05-07 17:56 38.06832 142.14236 33852 ft 415 kts 227°
2026-05-07 17:56 38.02799 142.09034 33850 ft 416 kts 227°
2026-05-07 17:57 37.99391 142.04647 33850 ft 417 kts 227°
2026-05-07 17:57 37.94660 141.98561 33853 ft 417 kts 227°
2026-05-07 17:58 37.90585 141.93325 33853 ft 417 kts 227°
2026-05-07 17:58 37.86507 141.88092 33852 ft 417 kts 227°
2026-05-07 17:59 37.82427 141.82867 33851 ft 417 kts 227°
2026-05-07 17:59 37.78345 141.77646 33853 ft 418 kts 227°
2026-05-07 18:00 37.74258 141.72428 33846 ft 418 kts 227°
2026-05-07 18:00 37.70166 141.67212 33854 ft 418 kts 227°
2026-05-07 18:01 37.66068 141.61999 33853 ft 418 kts 227°
2026-05-07 18:01 37.61964 141.56785 33860 ft 419 kts 227°
2026-05-07 18:02 37.55800 141.48972 33856 ft 419 kts 227°
2026-05-07 18:03 37.51690 141.43772 33858 ft 419 kts 227°
2026-05-07 18:03 37.47574 141.38573 33859 ft 419 kts 227°
2026-05-07 18:04 37.43459 141.33384 33853 ft 419 kts 227°
2026-05-07 18:04 37.39336 141.28195 33850 ft 419 kts 226°
2026-05-07 18:05 37.35208 141.23006 33859 ft 420 kts 226°
2026-05-07 18:05 37.31071 141.17815 33860 ft 421 kts 226°
2026-05-07 18:06 37.26929 141.12626 33858 ft 421 kts 226°
2026-05-07 18:06 37.22779 141.07435 33858 ft 421 kts 226°
2026-05-07 18:07 37.18623 141.02243 33858 ft 422 kts 226°
2026-05-07 18:07 37.14487 140.97026 33855 ft 421 kts 230°
2026-05-07 18:08 37.10774 140.91354 33859 ft 421 kts 232°
2026-05-07 18:08 37.07142 140.85596 33855 ft 421 kts 232°
2026-05-07 18:09 37.03482 140.79854 33855 ft 422 kts 232°
2026-05-07 18:09 36.99793 140.74120 33847 ft 423 kts 232°
2026-05-07 18:10 36.96091 140.68390 33850 ft 424 kts 232°
2026-05-07 18:10 36.92381 140.62659 33859 ft 424 kts 232°
2026-05-07 18:11 36.88669 140.56932 33862 ft 424 kts 232°
2026-05-07 18:11 36.84951 140.51204 33859 ft 424 kts 232°
2026-05-07 18:12 36.81230 140.45483 33861 ft 425 kts 232°
2026-05-07 18:12 36.77503 140.39759 33855 ft 425 kts 232°
2026-05-07 18:13 36.73814 140.34003 33851 ft 425 kts 235°
2026-05-07 18:13 36.70565 140.27861 33843 ft 424 kts 238°
2026-05-07 18:14 36.67385 140.21670 33858 ft 424 kts 237°
2026-05-07 18:14 36.64169 140.15512 33858 ft 424 kts 237°
2026-05-07 18:15 36.60930 140.09364 33854 ft 425 kts 237°
2026-05-07 18:15 36.57684 140.03217 33864 ft 425 kts 237°
2026-05-07 18:16 36.54428 139.97078 33869 ft 425 kts 237°
2026-05-07 18:16 36.51164 139.90934 33866 ft 426 kts 237°
2026-05-07 18:17 36.47906 139.84842 33874 ft 426 kts 236°
2026-05-07 18:17 36.44409 139.78889 33880 ft 427 kts 234°
2026-05-07 18:18 36.40886 139.72955 33861 ft 427 kts 234°
2026-05-07 18:18 36.37390 139.66985 33879 ft 428 kts 235°
2026-05-07 18:19 36.33901 139.60993 33892 ft 429 kts 235°
2026-05-07 18:19 36.30403 139.54994 33889 ft 429 kts 235°
2026-05-07 18:20 36.27489 139.50007 33895 ft 430 kts 235°
2026-05-07 18:20 36.23977 139.44009 33889 ft 430 kts 235°
2026-05-07 18:21 36.20466 139.38021 33890 ft 430 kts 235°
2026-05-07 18:21 36.16966 139.32027 33889 ft 429 kts 237°
2026-05-07 18:22 36.14237 139.25479 33899 ft 429 kts 245°
2026-05-07 18:22 36.11783 139.18760 33897 ft 429 kts 245°
2026-05-07 18:23 36.09303 139.12056 33898 ft 429 kts 245°
2026-05-07 18:23 36.06803 139.05365 33918 ft 429 kts 245°
2026-05-07 18:24 36.04298 138.98681 33903 ft 428 kts 245°
2026-05-07 18:24 36.01797 138.92017 33916 ft 427 kts 245°
2026-05-07 18:25 35.99292 138.85361 33928 ft 427 kts 245°
2026-05-07 18:25 35.96786 138.78711 33928 ft 427 kts 245°
2026-05-07 18:26 35.94277 138.72062 33935 ft 427 kts 245°
2026-05-07 18:26 35.91762 138.65409 33927 ft 428 kts 245°
2026-05-07 18:27 35.89238 138.58750 33935 ft 428 kts 245°
2026-05-07 18:27 35.86698 138.52085 33931 ft 430 kts 245°
2026-05-07 18:28 35.84148 138.45411 33928 ft 431 kts 245°
2026-05-07 18:28 35.81591 138.38723 33929 ft 432 kts 245°
2026-05-07 18:29 35.79023 138.32023 33938 ft 433 kts 245°
2026-05-07 18:29 35.76451 138.25310 33943 ft 433 kts 245°
2026-05-07 18:30 35.73876 138.18586 33928 ft 435 kts 245°
2026-05-07 18:30 35.71288 138.11845 33950 ft 436 kts 245°
2026-05-07 18:31 35.68690 138.05088 33944 ft 437 kts 245°
2026-05-07 18:31 35.66104 137.98319 33939 ft 438 kts 246°
2026-05-07 18:32 35.63633 137.91474 33952 ft 438 kts 246°
2026-05-07 18:32 35.61163 137.84617 33948 ft 439 kts 246°
2026-05-07 18:33 35.58663 137.77772 33941 ft 439 kts 246°
2026-05-07 18:33 35.56089 137.70973 33940 ft 439 kts 245°
2026-05-07 18:34 35.53503 137.64186 33944 ft 439 kts 245°
2026-05-07 18:34 35.50940 137.57440 33941 ft 439 kts 245°
2026-05-07 18:35 35.48289 137.50699 33924 ft 439 kts 239°
2026-05-07 18:35 35.44276 137.45063 33922 ft 442 kts 223°
2026-05-07 18:36 35.39053 137.41019 33926 ft 447 kts 211°
2026-05-07 18:36 35.33557 137.37455 33914 ft 447 kts 211°
2026-05-07 18:37 35.28087 137.33859 33903 ft 446 kts 212°
2026-05-07 18:37 35.22641 137.30227 33899 ft 446 kts 212°
2026-05-07 18:38 35.17200 137.26598 33886 ft 446 kts 212°
2026-05-07 18:38 35.11744 137.22973 33906 ft 447 kts 212°
2026-05-07 18:39 35.06270 137.19351 33895 ft 448 kts 212°
2026-05-07 18:39 35.00784 137.15726 33890 ft 448 kts 212°
2026-05-07 18:40 34.95296 137.12105 33883 ft 448 kts 212°
2026-05-07 18:40 34.89808 137.08487 33876 ft 449 kts 212°
2026-05-07 18:41 34.84315 137.04871 33884 ft 449 kts 212°
2026-05-07 18:41 34.78814 137.01254 33882 ft 449 kts 212°
2026-05-07 18:42 34.73327 136.97617 33875 ft 448 kts 215°
2026-05-07 18:42 34.68558 136.92866 33877 ft 442 kts 230°
2026-05-07 18:43 34.64740 136.87048 33880 ft 440 kts 234°
2026-05-07 18:43 34.60988 136.81163 33865 ft 441 kts 234°
2026-05-07 18:44 34.57217 136.75298 33884 ft 441 kts 234°
2026-05-07 18:44 34.53426 136.69450 33881 ft 441 kts 234°
2026-05-07 18:45 34.49627 136.63611 33885 ft 441 kts 233°
2026-05-07 18:45 34.45827 136.57782 33884 ft 441 kts 233°
2026-05-07 18:46 34.42030 136.51965 33887 ft 440 kts 233°
2026-05-07 18:46 34.38240 136.46168 33888 ft 438 kts 233°
2026-05-07 18:47 34.34459 136.40394 33891 ft 437 kts 233°
2026-05-07 18:47 34.30682 136.34635 33883 ft 436 kts 233°
2026-05-07 18:48 34.26919 136.28908 33885 ft 434 kts 233°
2026-05-07 18:48 34.23168 136.23208 33888 ft 433 kts 233°
2026-05-07 18:49 34.19423 136.17526 33908 ft 432 kts 233°
2026-05-07 18:49 34.15680 136.11853 33902 ft 432 kts 233°
2026-05-07 18:50 34.11933 136.06186 33904 ft 432 kts 233°
2026-05-07 18:50 34.08209 136.00562 33904 ft 432 kts 233°
2026-05-07 18:51 34.04454 135.94900 33902 ft 433 kts 233°
2026-05-07 18:51 34.00693 135.89237 33909 ft 432 kts 233°
2026-05-07 18:52 33.96927 135.83578 33912 ft 433 kts 233°
2026-05-07 18:52 33.93154 135.77916 33912 ft 434 kts 233°
2026-05-07 18:53 33.89377 135.72256 33904 ft 434 kts 233°
2026-05-07 18:53 33.85595 135.66597 33911 ft 434 kts 233°
2026-05-07 18:54 33.81801 135.60931 33912 ft 435 kts 233°
2026-05-07 18:54 33.77998 135.55259 33896 ft 435 kts 233°
2026-05-07 18:55 33.74195 135.49598 33918 ft 436 kts 233°
2026-05-07 18:55 33.70383 135.43930 33907 ft 436 kts 233°
2026-05-07 18:56 33.66570 135.38270 33920 ft 436 kts 233°
2026-05-07 18:56 33.62758 135.32620 33909 ft 435 kts 232°
2026-05-07 18:57 33.58950 135.26987 33906 ft 434 kts 232°
2026-05-07 18:57 33.55144 135.21363 33911 ft 434 kts 232°
2026-05-07 18:58 33.51342 135.15754 33906 ft 433 kts 232°
2026-05-07 18:58 33.47540 135.10152 33897 ft 433 kts 232°
2026-05-07 18:59 33.43735 135.04553 33895 ft 433 kts 232°
2026-05-07 18:59 33.39931 134.98966 33906 ft 432 kts 232°
2026-05-07 19:00 33.36153 134.93396 33898 ft 430 kts 232°
2026-05-07 19:00 33.32402 134.87860 33901 ft 427 kts 232°
2026-05-07 19:01 33.28661 134.82348 33890 ft 426 kts 232°
2026-05-07 19:01 33.24927 134.76857 33896 ft 426 kts 232°
2026-05-07 19:02 33.21191 134.71370 33898 ft 426 kts 232°
2026-05-07 19:02 33.17570 134.65787 33891 ft 425 kts 239°
2026-05-07 19:03 33.15049 134.59429 33904 ft 426 kts 252°
2026-05-07 19:03 33.13675 134.53789 33901 ft 426 kts 253°
2026-05-07 19:04 33.12042 134.46994 33898 ft 426 kts 253°
2026-05-07 19:04 33.10379 134.40215 33898 ft 426 kts 252°
2026-05-07 19:05 33.08698 134.33440 33903 ft 426 kts 252°
2026-05-07 19:05 33.07013 134.26665 33904 ft 426 kts 252°
2026-05-07 19:06 33.05338 134.19894 33917 ft 425 kts 253°
2026-05-07 19:06 33.02887 134.09746 33904 ft 424 kts 253°
2026-05-07 19:07 33.01254 134.02999 33904 ft 424 kts 253°
2026-05-07 19:07 32.99616 133.96268 33907 ft 422 kts 253°
2026-05-07 19:08 32.97981 133.89567 33907 ft 421 kts 253°
2026-05-07 19:08 32.96346 133.82887 33912 ft 420 kts 253°
2026-05-07 19:09 32.94712 133.76227 33912 ft 419 kts 253°
2026-05-07 19:09 32.93078 133.69581 33912 ft 418 kts 253°
2026-05-07 19:10 32.91444 133.62950 33920 ft 417 kts 253°
2026-05-07 19:10 32.89806 133.56322 33892 ft 417 kts 253°
2026-05-07 19:11 32.88163 133.49716 33906 ft 416 kts 253°
2026-05-07 19:11 32.86516 133.43114 33906 ft 416 kts 253°
2026-05-07 19:12 32.84867 133.36515 33910 ft 416 kts 253°
2026-05-07 19:12 32.83215 133.29914 33886 ft 417 kts 253°
2026-05-07 19:13 32.81559 133.23317 33898 ft 416 kts 253°
2026-05-07 19:13 32.79900 133.16721 33910 ft 417 kts 253°
2026-05-07 19:14 32.78237 133.10126 33906 ft 417 kts 253°
2026-05-07 19:14 32.76569 133.03528 33907 ft 417 kts 253°
2026-05-07 19:15 32.74482 132.97124 33904 ft 417 kts 242°
2026-05-07 19:15 32.71649 132.91110 33911 ft 417 kts 242°
2026-05-07 19:16 32.68814 132.85096 33912 ft 417 kts 242°
2026-05-07 19:16 32.65993 132.79078 33912 ft 417 kts 242°
2026-05-07 19:17 32.63178 132.73060 33911 ft 417 kts 242°
2026-05-07 19:17 32.60361 132.67043 33912 ft 417 kts 242°
2026-05-07 19:18 32.57541 132.61026 33922 ft 417 kts 242°
2026-05-07 19:18 32.54719 132.55018 33891 ft 417 kts 242°
2026-05-07 19:19 32.51901 132.49026 33906 ft 416 kts 242°
2026-05-07 19:19 32.49085 132.43049 33912 ft 415 kts 242°
2026-05-07 19:20 32.46266 132.37077 33922 ft 415 kts 242°
2026-05-07 19:20 32.43449 132.31117 33895 ft 415 kts 243°
2026-05-07 19:21 32.40633 132.25169 33909 ft 414 kts 243°
2026-05-07 19:21 32.37816 132.19228 33925 ft 414 kts 243°
2026-05-07 19:22 32.34992 132.13282 33916 ft 415 kts 243°
2026-05-07 19:22 32.32161 132.07332 33902 ft 416 kts 243°
2026-05-07 19:23 32.29321 132.01373 33915 ft 416 kts 243°
2026-05-07 19:23 32.26475 131.95408 33924 ft 418 kts 243°
2026-05-07 19:24 32.23612 131.89419 33919 ft 419 kts 242°
2026-05-07 19:24 32.20740 131.83422 33909 ft 420 kts 243°
2026-05-07 19:25 32.17861 131.77419 33946 ft 421 kts 243°
2026-05-07 19:25 32.14978 131.71418 33931 ft 420 kts 242°
2026-05-07 19:26 32.12095 131.65426 33918 ft 420 kts 242°
2026-05-07 19:26 32.09211 131.59443 33914 ft 419 kts 242°
2026-05-07 19:27 32.06327 131.53466 33933 ft 419 kts 242°
2026-05-07 19:27 32.03441 131.47498 33918 ft 419 kts 242°
2026-05-07 19:28 32.00559 131.41547 33918 ft 418 kts 242°
2026-05-07 19:28 31.97674 131.35598 33908 ft 419 kts 242°
2026-05-07 19:29 31.94778 131.29637 33925 ft 420 kts 242°
2026-05-07 19:29 31.91872 131.23664 33957 ft 421 kts 242°
2026-05-07 19:30 31.88958 131.17685 33946 ft 421 kts 242°
2026-05-07 19:30 31.86041 131.11709 33966 ft 422 kts 242°
2026-05-07 19:31 31.83113 131.05719 33961 ft 423 kts 242°
2026-05-07 19:31 31.80178 130.99725 33966 ft 423 kts 242°
2026-05-07 19:32 31.77237 130.93730 33940 ft 423 kts 242°
2026-05-07 19:32 31.74296 130.87742 33965 ft 423 kts 242°
2026-05-07 19:33 31.71347 130.81750 33971 ft 424 kts 242°
2026-05-07 19:33 31.68391 130.75750 33964 ft 425 kts 242°
2026-05-07 19:34 31.65429 130.69750 33943 ft 425 kts 242°
2026-05-07 19:34 31.62468 130.63761 33963 ft 424 kts 242°
2026-05-07 19:35 31.59507 130.57781 33964 ft 424 kts 242°
2026-05-07 19:35 31.56542 130.51802 33966 ft 424 kts 242°
2026-05-07 19:36 31.53577 130.45832 33977 ft 424 kts 242°
2026-05-07 19:36 31.50597 130.39842 33974 ft 426 kts 242°
2026-05-07 19:37 31.47627 130.33880 33968 ft 427 kts 242°
2026-05-07 19:37 31.44606 130.27826 33969 ft 428 kts 242°
2026-05-07 19:38 31.41601 130.21815 33963 ft 428 kts 242°
2026-05-07 19:38 31.38598 130.15816 33976 ft 427 kts 242°
2026-05-07 19:39 31.35596 130.09827 33960 ft 427 kts 242°
2026-05-07 19:39 31.33099 130.04854 33968 ft 426 kts 242°
2026-05-07 19:40 31.29594 129.97882 33956 ft 425 kts 242°
2026-05-07 19:40 31.26152 129.92258 33967 ft 426 kts 236°
2026-05-07 19:41 31.22478 129.86822 33967 ft 426 kts 236°
2026-05-07 19:41 31.18816 129.81392 33973 ft 425 kts 236°
2026-05-07 19:42 31.15168 129.75956 33960 ft 425 kts 236°
2026-05-07 19:42 31.11525 129.70520 33970 ft 425 kts 236°
2026-05-07 19:43 31.07882 129.65089 33975 ft 425 kts 236°
2026-05-07 19:43 31.04848 129.60575 33976 ft 425 kts 236°
2026-05-07 19:44 31.01199 129.55150 33956 ft 425 kts 237°
2026-05-07 19:44 30.97544 129.49726 33971 ft 425 kts 237°
2026-05-07 19:45 30.93888 129.44305 33975 ft 426 kts 237°
2026-05-07 19:45 30.90224 129.38882 33979 ft 426 kts 237°
2026-05-07 19:46 30.86561 129.33467 33975 ft 426 kts 237°
2026-05-07 19:46 30.82894 129.28054 33977 ft 426 kts 237°
2026-05-07 19:47 30.79231 129.22652 33982 ft 425 kts 237°
2026-05-07 19:47 30.75583 129.17237 33980 ft 425 kts 238°
2026-05-07 19:48 30.72003 129.11781 33987 ft 424 kts 238°
2026-05-07 19:48 30.68433 129.06325 33982 ft 424 kts 238°
2026-05-07 19:49 30.64856 129.00881 33993 ft 424 kts 238°
2026-05-07 19:49 30.61274 128.95446 33987 ft 424 kts 238°
2026-05-07 19:50 30.57687 128.90013 33975 ft 424 kts 238°
2026-05-07 19:50 30.54102 128.84593 33988 ft 424 kts 238°
2026-05-07 19:51 30.50513 128.79173 33985 ft 423 kts 238°
2026-05-07 19:51 30.46926 128.73763 33992 ft 423 kts 238°
2026-05-07 19:52 30.43335 128.68355 33979 ft 423 kts 238°
2026-05-07 19:52 30.39748 128.62959 33995 ft 423 kts 238°
2026-05-07 19:53 30.36156 128.57564 33991 ft 422 kts 238°
2026-05-07 19:53 30.32568 128.52181 33992 ft 422 kts 238°
2026-05-07 19:54 30.28979 128.46805 33980 ft 422 kts 238°
2026-05-07 19:54 30.25390 128.41436 33988 ft 422 kts 238°
2026-05-07 19:55 30.21798 128.36068 33993 ft 422 kts 238°
2026-05-07 19:55 30.18202 128.30702 33992 ft 422 kts 238°
2026-05-07 19:56 30.14602 128.25339 33995 ft 422 kts 238°
2026-05-07 19:56 30.10998 128.19976 33995 ft 422 kts 238°
2026-05-07 19:57 30.07393 128.14617 34000 ft 422 kts 238°
2026-05-07 19:57 30.03787 128.09265 33999 ft 422 kts 238°
2026-05-07 19:58 30.00183 128.03924 33967 ft 422 kts 238°
2026-05-07 19:58 29.96586 127.98599 33994 ft 420 kts 238°
2026-05-07 19:59 29.92989 127.93281 34012 ft 420 kts 238°
2026-05-07 19:59 29.89395 127.87972 34005 ft 420 kts 238°
2026-05-07 20:00 29.85790 127.82672 34007 ft 421 kts 237°
2026-05-07 20:00 29.81991 127.77528 33996 ft 422 kts 235°
2026-05-07 20:01 29.78158 127.72472 34003 ft 422 kts 235°
2026-05-07 20:01 29.74319 127.67366 34004 ft 421 kts 236°
2026-05-07 20:02 29.70498 127.62255 34004 ft 421 kts 236°
2026-05-07 20:02 29.66677 127.57147 33998 ft 421 kts 235°
2026-05-07 20:03 29.62851 127.52036 34007 ft 422 kts 235°
2026-05-07 20:03 29.59015 127.46922 34012 ft 423 kts 235°
2026-05-07 20:04 29.55295 127.41713 34005 ft 421 kts 237°
2026-05-07 20:04 29.51688 127.36419 33997 ft 420 kts 238°
2026-05-07 20:05 29.48075 127.31135 34005 ft 421 kts 237°
2026-05-07 20:05 29.44443 127.25867 34005 ft 421 kts 237°
2026-05-07 20:06 29.40795 127.20600 34013 ft 421 kts 237°
2026-05-07 20:06 29.37146 127.15341 33985 ft 421 kts 237°
2026-05-07 20:07 29.33500 127.10093 34000 ft 421 kts 237°
2026-05-07 20:07 29.29848 127.04841 34005 ft 421 kts 237°
2026-05-07 20:08 29.26195 126.99595 34006 ft 421 kts 237°
2026-05-07 20:08 29.22541 126.94355 33999 ft 421 kts 237°
2026-05-07 20:09 29.18884 126.89117 34005 ft 422 kts 237°
2026-05-07 20:09 29.17047 126.86486 34168 ft 423 kts 237°
2026-05-07 20:10 29.13383 126.81250 34815 ft 419 kts 237°
2026-05-07 20:10 29.11566 126.78656 35174 ft 417 kts 237°
2026-05-07 20:10 29.09731 126.76038 35490 ft 416 kts 237°
2026-05-07 20:10 29.07949 126.73494 35757 ft 416 kts 237°
2026-05-07 20:11 29.06144 126.70920 36047 ft 414 kts 237°
2026-05-07 20:11 29.04338 126.68344 36224 ft 417 kts 238°
2026-05-07 20:11 29.02522 126.65756 36381 ft 419 kts 238°
2026-05-07 20:11 29.00702 126.63166 36658 ft 417 kts 238°
2026-05-07 20:12 28.98888 126.60586 36957 ft 416 kts 238°
2026-05-07 20:12 28.97077 126.58014 37218 ft 416 kts 238°
2026-05-07 20:12 28.95238 126.55459 37439 ft 417 kts 237°
2026-05-07 20:12 28.93364 126.52924 37680 ft 417 kts 237°
2026-05-07 20:13 28.91486 126.50408 37940 ft 417 kts 237°
2026-05-07 20:13 28.89608 126.47894 38216 ft 415 kts 237°
2026-05-07 20:13 28.87734 126.45382 38362 ft 417 kts 237°
2026-05-07 20:13 28.85851 126.42850 38511 ft 419 kts 237°
2026-05-07 20:14 28.83970 126.40319 38729 ft 418 kts 237°
2026-05-07 20:14 28.82093 126.37794 38941 ft 417 kts 237°
2026-05-07 20:14 28.80217 126.35271 39095 ft 418 kts 237°
2026-05-07 20:14 28.78337 126.32740 39208 ft 419 kts 237°
2026-05-07 20:15 28.76450 126.30203 39322 ft 420 kts 237°
2026-05-07 20:15 28.74561 126.27665 39492 ft 420 kts 237°
2026-05-07 20:15 28.72673 126.25130 39623 ft 420 kts 237°
2026-05-07 20:16 28.68878 126.20039 39863 ft 421 kts 237°
2026-05-07 20:16 28.66981 126.17497 39992 ft 422 kts 237°
2026-05-07 20:16 28.65078 126.14946 39987 ft 423 kts 237°
2026-05-07 20:17 28.61312 126.09817 39992 ft 420 kts 238°
2026-05-07 20:17 28.57659 126.04646 40001 ft 418 kts 238°
2026-05-07 20:18 28.54022 125.99485 39997 ft 418 kts 238°
2026-05-07 20:18 28.50377 125.94338 39999 ft 418 kts 238°
2026-05-07 20:19 28.46722 125.89196 39999 ft 418 kts 238°
2026-05-07 20:19 28.43064 125.84062 39996 ft 418 kts 238°
2026-05-07 20:20 28.39398 125.78923 39970 ft 419 kts 238°
2026-05-07 20:20 28.35732 125.73789 39997 ft 419 kts 238°
2026-05-07 20:21 28.32055 125.68647 39997 ft 419 kts 238°
2026-05-07 20:21 28.28377 125.63509 39996 ft 420 kts 238°
2026-05-07 20:22 28.24693 125.58369 39996 ft 420 kts 238°
2026-05-07 20:22 28.21008 125.53233 39983 ft 420 kts 237°
2026-05-07 20:23 28.17315 125.48094 40004 ft 421 kts 238°
2026-05-07 20:23 28.13617 125.42952 39987 ft 421 kts 238°
2026-05-07 20:24 28.09913 125.37810 39993 ft 421 kts 238°
2026-05-07 20:24 28.06206 125.32669 39999 ft 421 kts 237°
2026-05-07 20:25 28.02498 125.27533 39989 ft 422 kts 237°
2026-05-07 20:25 27.98779 125.22387 40001 ft 423 kts 237°
2026-05-07 20:26 27.95051 125.17236 39995 ft 423 kts 237°
2026-05-07 20:26 27.91949 125.12955 39989 ft 423 kts 237°
2026-05-07 20:27 27.88214 125.07805 39965 ft 424 kts 237°
2026-05-07 20:27 27.84473 125.02653 39984 ft 424 kts 237°
2026-05-07 20:28 27.80726 124.97499 40003 ft 425 kts 237°
2026-05-07 20:28 27.76975 124.92345 39991 ft 425 kts 237°
2026-05-07 20:29 27.73220 124.87192 39989 ft 425 kts 237°
2026-05-07 20:29 27.69465 124.82045 39975 ft 425 kts 237°
2026-05-07 20:30 27.65706 124.76897 39986 ft 425 kts 237°
2026-05-07 20:30 27.61939 124.71746 39997 ft 426 kts 237°
2026-05-07 20:31 27.58170 124.66587 39985 ft 426 kts 237°
2026-05-07 20:31 27.54405 124.61432 39987 ft 426 kts 237°
2026-05-07 20:32 27.50665 124.56316 39979 ft 426 kts 237°
2026-05-07 20:32 27.46891 124.51160 39986 ft 427 kts 237°
2026-05-07 20:33 27.43111 124.46004 39985 ft 427 kts 237°
2026-05-07 20:33 27.39328 124.40849 39983 ft 427 kts 237°
2026-05-07 20:34 27.35539 124.35691 39984 ft 427 kts 237°
2026-05-07 20:34 27.31750 124.30540 39979 ft 428 kts 237°
2026-05-07 20:35 27.27928 124.25350 39983 ft 428 kts 237°
2026-05-07 20:35 27.24152 124.20227 39986 ft 429 kts 237°
2026-05-07 20:36 27.20321 124.15038 39977 ft 429 kts 237°
2026-05-07 20:36 27.16541 124.09922 39953 ft 429 kts 237°
2026-05-07 20:37 27.12730 124.04768 39977 ft 429 kts 237°
2026-05-07 20:37 27.08907 123.99608 39983 ft 430 kts 237°
2026-05-07 20:38 27.05046 123.94463 39983 ft 431 kts 236°
2026-05-07 20:38 27.01163 123.89326 39975 ft 431 kts 236°
2026-05-07 20:39 26.97288 123.84197 39958 ft 431 kts 236°
2026-05-07 20:39 26.93410 123.79063 39978 ft 432 kts 236°
2026-05-07 20:40 26.89523 123.73919 39975 ft 433 kts 236°
2026-05-07 20:40 26.85628 123.68773 39980 ft 433 kts 236°
2026-05-07 20:41 26.81725 123.63623 39971 ft 434 kts 236°
2026-05-07 20:41 26.77821 123.58477 39974 ft 434 kts 236°
2026-05-07 20:42 26.73912 123.53330 39970 ft 434 kts 236°
2026-05-07 20:42 26.70005 123.48190 39971 ft 434 kts 236°
2026-05-07 20:43 26.66094 123.43051 39968 ft 434 kts 236°
2026-05-07 20:43 26.62184 123.37918 39970 ft 434 kts 236°
2026-05-07 20:44 26.58274 123.32787 39960 ft 434 kts 236°
2026-05-07 20:44 26.54357 123.27650 39970 ft 434 kts 236°
2026-05-07 20:45 26.50438 123.22516 39971 ft 435 kts 236°
2026-05-07 20:45 26.46509 123.17375 39971 ft 435 kts 236°
2026-05-07 20:46 26.42576 123.12235 39973 ft 436 kts 236°
2026-05-07 20:46 26.38639 123.07094 39964 ft 436 kts 236°
2026-05-07 20:47 26.34688 123.01940 39973 ft 438 kts 236°
2026-05-07 20:47 26.30720 122.96782 39970 ft 439 kts 236°
2026-05-07 20:48 26.26736 122.91623 39965 ft 439 kts 236°
2026-05-07 20:48 26.22750 122.86467 39943 ft 440 kts 236°
2026-05-07 20:49 26.18757 122.81305 39957 ft 440 kts 235°
2026-05-07 20:49 26.14755 122.76136 39962 ft 441 kts 235°
2026-05-07 20:50 26.10745 122.70962 39965 ft 442 kts 235°
2026-05-07 20:50 26.06757 122.65821 39962 ft 442 kts 235°
2026-05-07 20:51 26.02736 122.60645 39945 ft 442 kts 235°
2026-05-07 20:51 25.98688 122.55438 39957 ft 442 kts 235°
2026-05-07 20:52 25.94686 122.50298 39959 ft 443 kts 235°
2026-05-07 20:52 25.90633 122.45084 39956 ft 443 kts 235°
2026-05-07 20:53 25.86637 122.39935 39957 ft 443 kts 235°
2026-05-07 20:53 25.82613 122.34754 39935 ft 443 kts 235°
2026-05-07 20:54 25.78585 122.29575 39948 ft 443 kts 235°
2026-05-07 20:54 25.74553 122.24398 39954 ft 444 kts 235°
2026-05-07 20:55 25.70516 122.19220 39953 ft 444 kts 235°
2026-05-07 20:55 25.66476 122.14043 39954 ft 444 kts 235°
2026-05-07 20:56 25.62434 122.08869 39936 ft 444 kts 234°
2026-05-07 20:56 25.58380 122.03701 39954 ft 444 kts 234°
2026-05-07 20:57 25.54315 121.98535 39953 ft 445 kts 234°
2026-05-07 20:57 25.50246 121.93367 39949 ft 445 kts 234°
2026-05-07 20:58 25.46178 121.88203 39944 ft 445 kts 234°
2026-05-07 20:58 25.42109 121.83042 39933 ft 445 kts 234°
2026-05-07 20:59 25.38034 121.77880 39947 ft 445 kts 234°
2026-05-07 20:59 25.33956 121.72719 39946 ft 446 kts 234°
2026-05-07 21:00 25.29872 121.67557 39939 ft 446 kts 234°
2026-05-07 21:00 25.25789 121.62402 39946 ft 446 kts 234°
2026-05-07 21:01 25.21698 121.57240 39924 ft 446 kts 234°
2026-05-07 21:01 25.17614 121.52096 39952 ft 445 kts 234°
2026-05-07 21:02 25.13575 121.46901 39935 ft 446 kts 235°
2026-05-07 21:02 25.09557 121.41676 39943 ft 446 kts 235°
2026-05-07 21:03 25.05531 121.36456 39966 ft 447 kts 235°
2026-05-07 21:03 25.01494 121.31238 39959 ft 448 kts 234°
2026-05-07 21:04 24.97447 121.26015 39966 ft 448 kts 234°
2026-05-07 21:04 24.93391 121.20788 39970 ft 449 kts 234°
2026-05-07 21:05 24.89332 121.15561 39968 ft 449 kts 234°
2026-05-07 21:05 24.85271 121.10335 39968 ft 449 kts 234°
2026-05-07 21:06 24.81211 121.05115 39970 ft 449 kts 234°
2026-05-07 21:06 24.77159 120.99893 39982 ft 449 kts 234°
2026-05-07 21:07 24.73107 120.94673 39977 ft 449 kts 234°
2026-05-07 21:07 24.69053 120.89457 39971 ft 448 kts 234°
2026-05-07 21:08 24.64998 120.84247 39970 ft 448 kts 234°
2026-05-07 21:08 24.60945 120.79044 39961 ft 448 kts 234°
2026-05-07 21:09 24.56894 120.73848 39980 ft 448 kts 234°
2026-05-07 21:09 24.52686 120.68791 39992 ft 450 kts 231°
2026-05-07 21:10 24.49046 120.64707 39981 ft 450 kts 230°
2026-05-07 21:10 24.44662 120.59792 39987 ft 450 kts 231°
2026-05-07 21:11 24.40305 120.54862 39989 ft 450 kts 231°
2026-05-07 21:11 24.33779 120.47455 39986 ft 450 kts 231°
2026-05-07 21:12 24.29427 120.42523 39988 ft 450 kts 231°
2026-05-07 21:12 24.25072 120.37593 39978 ft 450 kts 231°
2026-05-07 21:13 24.20732 120.32650 39966 ft 450 kts 231°
2026-05-07 21:13 24.16409 120.27691 39943 ft 450 kts 231°
2026-05-07 21:14 24.12065 120.22756 39958 ft 450 kts 231°
2026-05-07 21:14 24.07717 120.17821 39956 ft 450 kts 231°
2026-05-07 21:15 24.03371 120.12886 39954 ft 450 kts 231°
2026-05-07 21:15 23.99020 120.07955 39952 ft 451 kts 231°
2026-05-07 21:16 23.94646 120.03039 39931 ft 451 kts 230°
2026-05-07 21:16 23.90267 119.98127 39940 ft 451 kts 230°
2026-05-07 21:17 23.85887 119.93214 39947 ft 452 kts 230°
2026-05-07 21:17 23.81502 119.88297 39946 ft 452 kts 230°
2026-05-07 21:18 23.77111 119.83380 39955 ft 452 kts 230°
2026-05-07 21:18 23.72718 119.78465 39946 ft 452 kts 230°
2026-05-07 21:19 23.68326 119.73555 39958 ft 452 kts 230°
2026-05-07 21:19 23.63937 119.68651 39968 ft 452 kts 230°
2026-05-07 21:20 23.59588 119.63702 39962 ft 449 kts 235°
2026-05-07 21:20 23.56138 119.58109 39968 ft 444 kts 243°
2026-05-07 21:21 23.52889 119.52382 39966 ft 444 kts 243°
2026-05-07 21:21 23.49620 119.46669 39954 ft 444 kts 242°
2026-05-07 21:22 23.46325 119.40972 39956 ft 445 kts 242°
2026-05-07 21:22 23.43017 119.35280 39952 ft 445 kts 242°
2026-05-07 21:23 23.39704 119.29590 39949 ft 445 kts 242°
2026-05-07 21:23 23.36387 119.23895 39946 ft 445 kts 242°
2026-05-07 21:24 23.33070 119.18207 39945 ft 445 kts 242°
2026-05-07 21:24 23.29750 119.12518 39940 ft 445 kts 242°
2026-05-07 21:25 23.26430 119.06837 39948 ft 445 kts 242°
2026-05-07 21:25 23.23106 119.01155 39948 ft 445 kts 242°
2026-05-07 21:26 23.19779 118.95475 39948 ft 445 kts 242°
2026-05-07 21:26 23.16451 118.89798 39945 ft 445 kts 242°
2026-05-07 21:27 23.13123 118.84129 39946 ft 445 kts 242°
2026-05-07 21:27 23.09797 118.78468 39938 ft 445 kts 242°
2026-05-07 21:28 23.06468 118.72809 39945 ft 445 kts 242°
2026-05-07 21:28 23.03135 118.67148 39946 ft 445 kts 242°
2026-05-07 21:29 22.99799 118.61488 39951 ft 445 kts 242°
2026-05-07 21:29 22.96462 118.55831 39947 ft 445 kts 242°
2026-05-07 21:30 22.93117 118.50184 39948 ft 445 kts 242°
2026-05-07 21:30 22.89762 118.44548 39948 ft 445 kts 242°
2026-05-07 21:31 22.86405 118.38910 39936 ft 446 kts 241°
2026-05-07 21:31 22.83036 118.33253 39951 ft 447 kts 241°
2026-05-07 21:32 22.79655 118.27582 39949 ft 448 kts 241°
2026-05-07 21:32 22.76264 118.21902 39945 ft 449 kts 241°
2026-05-07 21:33 22.72865 118.16214 39945 ft 450 kts 241°
2026-05-07 21:33 22.69465 118.10529 39942 ft 450 kts 241°
2026-05-07 21:34 22.66059 118.04841 39947 ft 450 kts 241°
2026-05-07 21:34 22.62656 117.99163 39943 ft 449 kts 241°
2026-05-07 21:35 22.59258 117.93495 39942 ft 449 kts 241°
2026-05-07 21:35 22.55879 117.87819 39942 ft 448 kts 242°
2026-05-07 21:36 22.52506 117.82148 39945 ft 448 kts 242°
2026-05-07 21:36 22.49134 117.76488 39945 ft 448 kts 242°
2026-05-07 21:37 22.45759 117.70831 39945 ft 448 kts 242°
2026-05-07 21:37 22.42377 117.65170 39939 ft 449 kts 241°
2026-05-07 21:38 22.38989 117.59502 39946 ft 450 kts 241°
2026-05-07 21:38 22.35612 117.53809 39939 ft 449 kts 245°
2026-05-07 21:39 22.33499 117.47580 39945 ft 439 kts 262°
2026-05-07 21:39 22.33031 117.41066 39952 ft 434 kts 272°
2026-05-07 21:40 22.32969 117.34550 39942 ft 434 kts 272°
2026-05-07 21:40 22.32895 117.28040 39941 ft 433 kts 272°
2026-05-07 21:41 22.32789 117.21535 39945 ft 433 kts 271°
2026-05-07 21:41 22.32668 117.15031 39953 ft 433 kts 271°
2026-05-07 21:42 22.32542 117.08537 39940 ft 432 kts 271°
2026-05-07 21:42 22.32413 117.02055 39943 ft 431 kts 271°
2026-05-07 21:43 22.32283 116.95580 39944 ft 431 kts 271°
2026-05-07 21:43 22.32152 116.89151 39946 ft 431 kts 271°
2026-05-07 21:44 22.32017 116.82683 39943 ft 431 kts 271°
2026-05-07 21:44 22.31879 116.76213 39939 ft 431 kts 271°
2026-05-07 21:45 22.31739 116.69730 39950 ft 432 kts 271°
2026-05-07 21:45 22.31596 116.63236 39949 ft 433 kts 271°
2026-05-07 21:46 22.31450 116.56732 39946 ft 434 kts 271°
2026-05-07 21:46 22.31301 116.50220 39945 ft 434 kts 271°
2026-05-07 21:47 22.31149 116.43706 39946 ft 434 kts 271°
2026-05-07 21:47 22.30995 116.37190 39945 ft 434 kts 271°
2026-05-07 21:48 22.30839 116.30672 39946 ft 434 kts 271°
2026-05-07 21:48 22.30679 116.24154 39935 ft 435 kts 270°
2026-05-07 21:49 22.30517 116.17623 39945 ft 435 kts 270°
2026-05-07 21:49 22.30352 116.11077 39944 ft 436 kts 270°
2026-05-07 21:50 22.30184 116.04521 39940 ft 437 kts 270°
2026-05-07 21:50 22.30013 115.97957 39943 ft 437 kts 270°
2026-05-07 21:51 22.29839 115.91392 39944 ft 437 kts 270°
2026-05-07 21:51 22.29663 115.84832 39945 ft 437 kts 270°
2026-05-07 21:52 22.29524 115.79374 39619 ft 436 kts 270°
2026-05-07 21:52 22.29454 115.76113 38913 ft 436 kts 271°
2026-05-07 21:52 22.29385 115.72849 38210 ft 434 kts 271°
2026-05-07 21:53 22.29314 115.69590 37417 ft 434 kts 271°
2026-05-07 21:53 22.29234 115.66339 36712 ft 432 kts 271°
2026-05-07 21:53 22.29145 115.63101 35972 ft 432 kts 271°
2026-05-07 21:53 22.29053 115.59848 35136 ft 434 kts 271°
2026-05-07 21:54 22.28959 115.56586 34237 ft 437 kts 271°
2026-05-07 21:54 22.28866 115.53289 33214 ft 441 kts 271°
2026-05-07 21:54 22.28771 115.49965 32210 ft 444 kts 271°
2026-05-07 21:54 22.28676 115.46621 31176 ft 447 kts 270°
2026-05-07 21:55 22.28579 115.43246 30077 ft 452 kts 270°
2026-05-07 21:55 22.28480 115.39840 28829 ft 455 kts 270°
2026-05-07 21:55 22.28382 115.36469 27626 ft 456 kts 270°
2026-05-07 21:55 22.28281 115.33047 26454 ft 456 kts 270°
2026-05-07 21:56 22.28178 115.29629 25326 ft 456 kts 269°
2026-05-07 21:56 22.28073 115.26213 24241 ft 454 kts 269°
2026-05-07 21:56 22.27967 115.22812 23136 ft 452 kts 269°
2026-05-07 21:56 22.27862 115.19433 21941 ft 449 kts 269°
2026-05-07 21:57 22.27757 115.16091 20899 ft 443 kts 269°
2026-05-07 21:57 22.27654 115.12794 19897 ft 436 kts 269°
2026-05-07 21:57 22.27551 115.09539 18901 ft 431 kts 268°
2026-05-07 21:57 22.27449 115.06332 17874 ft 426 kts 268°
2026-05-07 21:58 22.27348 115.03169 16864 ft 418 kts 268°
2026-05-07 21:58 22.27248 115.00048 15879 ft 412 kts 268°
2026-05-07 21:58 22.27149 114.96970 14864 ft 408 kts 268°
2026-05-07 21:58 22.27050 114.93933 13978 ft 401 kts 268°
2026-05-07 21:59 22.26951 114.90939 12934 ft 397 kts 268°
2026-05-07 21:59 22.26848 114.87980 11967 ft 392 kts 268°
2026-05-07 21:59 22.26746 114.85073 11442 ft 378 kts 268°
2026-05-07 21:59 22.26648 114.82315 11195 ft 357 kts 268°
2026-05-07 22:00 22.26437 114.79719 11016 ft 338 kts 256°
2026-05-07 22:00 22.25550 114.77453 10911 ft 321 kts 239°
2026-05-07 22:00 22.24162 114.75596 10777 ft 317 kts 226°
2026-05-07 22:00 22.22576 114.73931 10643 ft 321 kts 224°
2026-05-07 22:01 22.20928 114.72274 10495 ft 326 kts 224°
2026-05-07 22:01 22.19275 114.70619 10326 ft 319 kts 224°
2026-05-07 22:01 22.17691 114.69025 10166 ft 305 kts 224°
2026-05-07 22:01 22.16179 114.67491 10015 ft 292 kts 224°
2026-05-07 22:02 22.14744 114.66028 9939 ft 278 kts 224°
2026-05-07 22:02 22.13357 114.64609 9760 ft 272 kts 225°
2026-05-07 22:02 22.11989 114.63207 9617 ft 272 kts 225°
2026-05-07 22:02 22.10617 114.61800 9495 ft 273 kts 225°
2026-05-07 22:03 22.09232 114.60379 9350 ft 276 kts 224°
2026-05-07 22:03 22.07836 114.58946 9218 ft 278 kts 224°
2026-05-07 22:03 22.06436 114.57510 9079 ft 278 kts 224°
2026-05-07 22:03 22.05034 114.56074 8933 ft 278 kts 224°
2026-05-07 22:04 22.03632 114.54637 8809 ft 278 kts 224°
2026-05-07 22:04 22.02293 114.53139 8660 ft 277 kts 236°
2026-05-07 22:04 22.01454 114.51283 8549 ft 275 kts 248°
2026-05-07 22:04 22.00731 114.49374 8410 ft 275 kts 248°
2026-05-07 22:05 22.00018 114.47466 8271 ft 275 kts 248°
2026-05-07 22:05 21.99303 114.45557 8147 ft 274 kts 248°
2026-05-07 22:05 21.98586 114.43656 8013 ft 274 kts 248°
2026-05-07 22:05 21.97867 114.41760 7882 ft 273 kts 248°
2026-05-07 22:06 21.97147 114.39869 7744 ft 272 kts 248°
2026-05-07 22:06 21.96428 114.37985 7618 ft 272 kts 248°
2026-05-07 22:06 21.95709 114.36107 7489 ft 271 kts 248°
2026-05-07 22:06 21.94992 114.34233 7357 ft 270 kts 248°
2026-05-07 22:07 21.94278 114.32372 7224 ft 269 kts 248°
2026-05-07 22:07 21.93570 114.30525 7099 ft 268 kts 248°
2026-05-07 22:07 21.92860 114.28673 6970 ft 267 kts 248°
2026-05-07 22:07 21.92152 114.26829 6842 ft 266 kts 248°
2026-05-07 22:08 21.91447 114.24994 6718 ft 266 kts 248°
2026-05-07 22:08 21.90739 114.23152 6585 ft 265 kts 248°
2026-05-07 22:08 21.90033 114.21318 6467 ft 265 kts 248°
2026-05-07 22:08 21.89645 114.19402 6309 ft 264 kts 273°
2026-05-07 22:09 21.90079 114.17503 6199 ft 262 kts 294°
2026-05-07 22:09 21.90923 114.15764 6077 ft 262 kts 298°
2026-05-07 22:09 21.91820 114.14056 5943 ft 262 kts 299°
2026-05-07 22:09 21.92725 114.12351 5813 ft 262 kts 299°
2026-05-07 22:10 21.93623 114.10653 5684 ft 262 kts 299°
2026-05-07 22:10 21.94520 114.08944 5554 ft 262 kts 299°
2026-05-07 22:10 21.95415 114.07231 5433 ft 262 kts 298°
2026-05-07 22:10 21.96306 114.05519 5304 ft 262 kts 298°
2026-05-07 22:11 21.97196 114.03804 5182 ft 262 kts 298°
2026-05-07 22:11 21.98084 114.02090 5055 ft 262 kts 298°
2026-05-07 22:11 21.98961 114.00394 4929 ft 262 kts 298°
2026-05-07 22:11 21.99849 113.98676 4801 ft 262 kts 298°
2026-05-07 22:12 22.00735 113.96958 4674 ft 262 kts 298°
2026-05-07 22:12 22.01619 113.95244 4544 ft 262 kts 298°
2026-05-07 22:12 22.02503 113.93530 4416 ft 261 kts 298°
2026-05-07 22:12 22.03384 113.91820 4288 ft 261 kts 298°
2026-05-07 22:13 22.04263 113.90113 4161 ft 260 kts 298°
2026-05-07 22:13 22.05142 113.88406 4041 ft 260 kts 298°
2026-05-07 22:13 22.06017 113.86705 3911 ft 259 kts 298°
2026-05-07 22:13 22.06889 113.85011 3784 ft 258 kts 298°
2026-05-07 22:14 22.07759 113.83320 3662 ft 257 kts 298°
2026-05-07 22:14 22.08624 113.81638 3526 ft 256 kts 298°
2026-05-07 22:14 22.09487 113.79958 3406 ft 256 kts 298°
2026-05-07 22:14 22.10367 113.78292 3277 ft 255 kts 304°
2026-05-07 22:15 22.11695 113.77048 3150 ft 254 kts 330°
2026-05-07 22:15 22.13254 113.76229 3020 ft 245 kts 335°
2026-05-07 22:15 22.14778 113.75499 2891 ft 235 kts 335°
2026-05-07 22:15 22.16246 113.74788 2772 ft 227 kts 335°
2026-05-07 22:16 22.17655 113.74096 2658 ft 218 kts 334°
2026-05-07 22:16 22.19009 113.73427 2554 ft 210 kts 334°
2026-05-07 22:16 22.20310 113.72786 2451 ft 202 kts 338°
2026-05-07 22:16 22.21665 113.72669 2356 ft 198 kts 18°
2026-05-07 22:17 22.22884 113.73352 2430 ft 200 kts 32°
2026-05-07 22:17 22.24068 113.74177 2469 ft 204 kts 32°
2026-05-07 22:17 22.25251 113.75008 2485 ft 202 kts 32°
2026-05-07 22:17 22.26399 113.75873 2500 ft 200 kts 43°
2026-05-07 22:18 22.27025 113.77120 2390 ft 180 kts 72°
2026-05-07 22:18 22.27776 113.79432 2006 ft 144 kts 71°
2026-05-07 22:18 22.28091 113.80414 1813 ft 136 kts 71°
2026-05-07 22:19 22.28399 113.81376 1650 ft 135 kts 71°
2026-05-07 22:19 22.28705 113.82334 1458 ft 134 kts 71°
2026-05-07 22:19 22.29009 113.83283 1292 ft 133 kts 70°
2026-05-07 22:19 22.29311 113.84226 1123 ft 133 kts 71°
2026-05-07 22:20 22.29609 113.85163 955 ft 131 kts 71°
2026-05-07 22:20 22.29905 113.86087 790 ft 129 kts 71°
2026-05-07 22:20 22.30188 113.87000 624 ft 126 kts 72°
2026-05-07 22:20 22.30465 113.87883 461 ft 126 kts 70°
2026-05-07 22:21 22.30745 113.88783 352 ft 125 kts 71°
2026-05-07 22:21 22.31038 113.89661 153 ft 124 kts 70°
2026-05-07 22:21 22.31327 113.90530 38 ft 113 kts 70°
2026-05-07 22:21 22.31550 113.91218 31 ft 80 kts 71°
2026-05-07 22:22 22.31692 113.91667 30 ft 46 kts 71°
2026-05-07 22:22 22.31757 113.91873 32 ft 12 kts 71°
2026-05-07 22:22 22.31774 113.91928 32 ft 11 kts 72°
2026-05-07 22:22 22.31794 113.92066 32 ft 21 kts 85°
2026-05-07 22:23 22.31765 113.92232 31 ft 23 kts 131°
2026-05-07 22:23 22.31674 113.92159 31 ft 20 kts 250°
2026-05-07 22:23 22.31623 113.92018 30 ft 20 kts 250°
2026-05-07 22:23 22.31581 113.91880 30 ft 19 kts 250°
2026-05-07 22:24 22.31535 113.91747 30 ft 19 kts 250°
2026-05-07 22:24 22.31495 113.91617 31 ft 18 kts 254°
2026-05-07 22:24 22.31447 113.91459 31 ft 26 kts 251°
2026-05-07 22:24 22.31347 113.91339 31 ft 20 kts 167°
2026-05-07 22:25 22.31221 113.91389 31 ft 19 kts 160°
2026-05-07 22:25 22.31103 113.91425 31 ft 13 kts 198°
2026-05-07 22:25 22.31077 113.91366 33 ft 4 kts 252°
2026-05-07 22:25 22.31070 113.91343 33 ft 2 kts 251°
2026-05-07 22:26 22.31068 113.91336 31 ft 0 kts 251°
2026-05-07 22:26 22.31069 113.91339 31 ft 1 kts 251°
2026-05-07 22:26 22.31069 113.91341 33 ft 1 kts 251°